Wetterdaten: Montag, 23.04.2018
Datum Zeit Temp. Aussen Temp. o. S. +5cm Feuchte Auss BlattFeu 1 Luftdruck Regen Sonnenschein Regendauer Solar Windben Empfang
23.04.2018 00:00 17,1 C 15,0 C 12,8 C 82 % 0 lf 1009,9 hPa 0,0 l/m 0 min 0 min 0 W/m 0,0 km/h (0 Bft) 95,74 %
23.04.2018 00:02 17,1 C 15,0 C 12,8 C 82 % 0 lf 1010,0 hPa 0,0 l/m 0 min 0 min 0 W/m 0,0 km/h (0 Bft) 7,14 %
23.04.2018 00:04 17,1 C 15,0 C 12,8 C 82 % 0 lf 1010,0 hPa 0,0 l/m 0 min 0 min 0 W/m 0,0 km/h (0 Bft) 4,76 %
23.04.2018 00:07 16,9 C 15,0 C 12,8 C 82 % 0 lf 1010,1 hPa 0,0 l/m 0 min 0 min 0 W/m 0,0 km/h (0 Bft) 4,76 %
23.04.2018 00:08 16,9 C 15,0 C 12,8 C 82 % 0 lf 1010,2 hPa 0,0 l/m 0 min 0 min 0 W/m 0,0 km/h (0 Bft) 96,43 %
23.04.2018 00:10 16,9 C 15,0 C 12,2 C 83 % 0 lf 1010,1 hPa 0,0 l/m 0 min 0 min 0 W/m 0,0 km/h (0 Bft) 97,83 %
23.04.2018 00:12 16,8 C 15,0 C 12,8 C 83 % 0 lf 1010,1 hPa 0,0 l/m 0 min 0 min 0 W/m 0,0 km/h (0 Bft) 95,74 %
23.04.2018 00:14 16,8 C 14,4 C 12,8 C 83 % 0 lf 1010,1 hPa 0,0 l/m 0 min 0 min 0 W/m 0,0 km/h (0 Bft) 97,87 %
23.04.2018 00:16 16,8 C 15,0 C 12,8 C 83 % 1 lf 1010,0 hPa 0,0 l/m 0 min 0 min 0 W/m 0,0 km/h (0 Bft) 93,62 %
23.04.2018 00:18 16,7 C 14,4 C 12,2 C 83 % 1 lf 1010,0 hPa 0,0 l/m 0 min 0 min 0 W/m 0,0 km/h (0 Bft) 97,87 %
23.04.2018 00:20 16,7 C 14,4 C 12,2 C 83 % 1 lf 1010,1 hPa 0,0 l/m 0 min 0 min 0 W/m 0,0 km/h (0 Bft) 97,87 %
23.04.2018 00:22 16,7 C 14,4 C 12,2 C 83 % 1 lf 1010,1 hPa 0,0 l/m 0 min 0 min 0 W/m 0,0 km/h (0 Bft) 97,83 %
23.04.2018 00:24 16,6 C 14,4 C 12,2 C 83 % 1 lf 1010,1 hPa 0,0 l/m 0 min 0 min 0 W/m 4,5 km/h (1 Bft) 100,00 %
23.04.2018 00:26 16,6 C 14,4 C 12,2 C 83 % 1 lf 1010,1 hPa 0,0 l/m 0 min 0 min 0 W/m 6,8 km/h (2 Bft) 93,62 %
23.04.2018 00:28 16,6 C 14,4 C 12,8 C 84 % 1 lf 1010,1 hPa 0,0 l/m 0 min 0 min 0 W/m 4,5 km/h (1 Bft) 100,00 %
23.04.2018 00:30 16,5 C 14,4 C 12,8 C 84 % 1 lf 1010,1 hPa 0,0 l/m 0 min 0 min 0 W/m 4,5 km/h (1 Bft) 97,87 %
23.04.2018 00:32 16,5 C 14,4 C 12,8 C 84 % 1 lf 1010,1 hPa 0,0 l/m 0 min 0 min 0 W/m 4,5 km/h (1 Bft) 100,00 %
23.04.2018 00:34 16,4 C 14,4 C 12,8 C 84 % 1 lf 1010,0 hPa 0,0 l/m 0 min 0 min 0 W/m 4,5 km/h (1 Bft) 100,00 %
23.04.2018 00:36 16,4 C 14,4 C 12,8 C 84 % 1 lf 1010,0 hPa 0,0 l/m 0 min 0 min 0 W/m 4,5 km/h (1 Bft) 100,00 %
23.04.2018 00:38 16,3 C 14,4 C 12,8 C 84 % 1 lf 1010,0 hPa 0,0 l/m 0 min 0 min 0 W/m 2,3 km/h (1 Bft) 100,00 %
23.04.2018 00:40 16,3 C 14,4 C 12,8 C 84 % 1 lf 1010,0 hPa 0,0 l/m 0 min 0 min 0 W/m 0,0 km/h (0 Bft) 100,00 %
23.04.2018 00:42 16,3 C 14,4 C 12,2 C 84 % 1 lf 1010,0 hPa 0,0 l/m 0 min 0 min 0 W/m 0,0 km/h (0 Bft) 100,00 %
23.04.2018 00:44 16,2 C 14,4 C 12,2 C 84 % 1 lf 1009,9 hPa 0,0 l/m 0 min 0 min 0 W/m 0,0 km/h (0 Bft) 100,00 %
23.04.2018 00:46 16,2 C 13,9 C 12,2 C 85 % 1 lf 1010,0 hPa 0,0 l/m 0 min 0 min 0 W/m 0,0 km/h (0 Bft) 95,65 %
23.04.2018 00:48 16,2 C 13,9 C 12,2 C 85 % 1 lf 1010,0 hPa 0,0 l/m 0 min 0 min 0 W/m 0,0 km/h (0 Bft) 95,74 %
23.04.2018 00:50 16,1 C 13,9 C 12,2 C 85 % 1 lf 1010,0 hPa 0,0 l/m 0 min 0 min 0 W/m 0,0 km/h (0 Bft) 97,87 %
23.04.2018 00:52 16,1 C 14,4 C 12,2 C 85 % 1 lf 1010,0 hPa 0,0 l/m 0 min 0 min 0 W/m 0,0 km/h (0 Bft) 97,87 %
23.04.2018 00:54 16,1 C 14,4 C 12,2 C 85 % 1 lf 1010,0 hPa 0,0 l/m 0 min 0 min 0 W/m 0,0 km/h (0 Bft) 100,00 %
23.04.2018 00:56 16,0 C 14,4 C 12,2 C 85 % 1 lf 1010,0 hPa 0,0 l/m 0 min 0 min 0 W/m 0,0 km/h (0 Bft) 100,00 %
23.04.2018 00:58 15,9 C 14,4 C 12,2 C 85 % 1 lf 1010,0 hPa 0,0 l/m 0 min 0 min 0 W/m 0,0 km/h (0 Bft) 97,87 %
23.04.2018 01:00 15,9 C 14,4 C 12,2 C 85 % 1 lf 1009,9 hPa 0,0 l/m 0 min 0 min 0 W/m 0,0 km/h (0 Bft) 97,87 %
23.04.2018 01:02 15,9 C 14,4 C 12,2 C 85 % 1 lf 1009,9 hPa 0,0 l/m 0 min 0 min 0 W/m 0,0 km/h (0 Bft) 100,00 %
23.04.2018 01:04 15,8 C 14,4 C 12,2 C 85 % 1 lf 1010,0 hPa 0,0 l/m 0 min 0 min 0 W/m 0,0 km/h (0 Bft) 100,00 %
23.04.2018 01:08 15,8 C 14,4 C 12,2 C 85 % 1 lf 1010,0 hPa 0,0 l/m 0 min 0 min 0 W/m 0,0 km/h (0 Bft) 98,92 %
23.04.2018 01:10 15,8 C 14,4 C 12,2 C 85 % 1 lf 1010,0 hPa 0,0 l/m 0 min 0 min 0 W/m 0,0 km/h (0 Bft) 97,87 %
23.04.2018 01:12 15,8 C 14,4 C 12,8 C 86 % 1 lf 1010,1 hPa 0,0 l/m 0 min 0 min 0 W/m 6,8 km/h (2 Bft) 97,87 %
23.04.2018 01:14 15,7 C 14,4 C 12,8 C 86 % 1 lf 1010,2 hPa 0,0 l/m 0 min 0 min 0 W/m 6,8 km/h (2 Bft) 95,74 %
23.04.2018 01:16 15,7 C 14,4 C 12,8 C 86 % 1 lf 1010,3 hPa 0,0 l/m 0 min 0 min 0 W/m 6,8 km/h (2 Bft) 95,74 %
23.04.2018 01:18 15,7 C 14,4 C 12,8 C 86 % 1 lf 1010,5 hPa 0,0 l/m 0 min 0 min 0 W/m 4,5 km/h (1 Bft) 97,87 %
23.04.2018 01:20 15,7 C 14,4 C 13,3 C 87 % 0 lf 1010,6 hPa 0,0 l/m 0 min 0 min 0 W/m 9,0 km/h (2 Bft) 97,83 %
23.04.2018 01:22 15,7 C 14,4 C 13,3 C 87 % 0 lf 1010,7 hPa 0,0 l/m 0 min 0 min 0 W/m 9,0 km/h (2 Bft) 95,74 %
23.04.2018 01:24 15,7 C 15,0 C 13,3 C 88 % 3 lf 1010,6 hPa 0,0 l/m 0 min 0 min 0 W/m 9,0 km/h (2 Bft) 91,49 %
23.04.2018 01:26 15,7 C 15,0 C 13,9 C 88 % 14 lf 1010,7 hPa 0,0 l/m 0 min 2 min 0 W/m 11,3 km/h (2 Bft) 95,74 %
23.04.2018 01:28 15,7 C 14,4 C 13,3 C 88 % 15 lf 1010,6 hPa 0,0 l/m 0 min 2 min 0 W/m 6,8 km/h (2 Bft) 97,87 %
23.04.2018 01:30 15,6 C 14,4 C 13,3 C 88 % 15 lf 1010,5 hPa 0,0 l/m 0 min 2 min 0 W/m 9,0 km/h (2 Bft) 95,74 %
23.04.2018 01:32 15,6 C 14,4 C 13,3 C 89 % 15 lf 1010,5 hPa 0,0 l/m 0 min 2 min 0 W/m 15,8 km/h (3 Bft) 95,65 %
23.04.2018 01:34 15,7 C 14,4 C 13,9 C 89 % 15 lf 1010,7 hPa 0,0 l/m 0 min 2 min 0 W/m 18,0 km/h (3 Bft) 97,87 %
23.04.2018 01:38 15,8 C 14,4 C 13,9 C 90 % 15 lf 1010,7 hPa 0,0 l/m 0 min 0 min 0 W/m 33,8 km/h (5 Bft) 94,68 %
23.04.2018 01:40 15,8 C 14,4 C 13,9 C 90 % 15 lf 1010,7 hPa 0,0 l/m 0 min 0 min 0 W/m 22,5 km/h (4 Bft) 93,62 %
23.04.2018 01:42 15,8 C 14,4 C 13,9 C 90 % 15 lf 1010,8 hPa 0,0 l/m 0 min 2 min 0 W/m 22,5 km/h (4 Bft) 93,62 %
23.04.2018 01:44 15,8 C 14,4 C 13,9 C 90 % 15 lf 1010,7 hPa 0,0 l/m 0 min 2 min 0 W/m 11,3 km/h (2 Bft) 95,65 %
23.04.2018 01:46 15,9 C 14,4 C 13,9 C 90 % 15 lf 1010,6 hPa 0,0 l/m 0 min 2 min 0 W/m 15,8 km/h (3 Bft) 95,74 %
23.04.2018 01:48 15,9 C 14,4 C 13,9 C 90 % 15 lf 1010,7 hPa 0,0 l/m 0 min 2 min 0 W/m 6,8 km/h (2 Bft) 95,74 %
23.04.2018 01:50 15,9 C 14,4 C 13,9 C 90 % 15 lf 1010,7 hPa 0,0 l/m 0 min 0 min 0 W/m 6,8 km/h (2 Bft) 95,74 %
23.04.2018 01:52 15,9 C 14,4 C 13,9 C 90 % 15 lf 1010,7 hPa 0,0 l/m 0 min 2 min 0 W/m 11,3 km/h (2 Bft) 95,74 %
23.04.2018 01:54 15,9 C 14,4 C 13,3 C 90 % 15 lf 1010,6 hPa 0,6 l/m 0 min 2 min 0 W/m 11,3 km/h (2 Bft) 97,83 %
23.04.2018 01:56 15,9 C 14,4 C 13,3 C 90 % 15 lf 1010,4 hPa 0,0 l/m 0 min 2 min 0 W/m 6,8 km/h (2 Bft) 97,87 %
23.04.2018 01:58 15,9 C 14,4 C 13,3 C 90 % 15 lf 1010,5 hPa 0,2 l/m 0 min 2 min 0 W/m 13,5 km/h (3 Bft) 91,49 %
23.04.2018 02:00 15,9 C 14,4 C 13,3 C 90 % 15 lf 1010,7 hPa 0,0 l/m 0 min 0 min 0 W/m 13,5 km/h (3 Bft) 95,74 %
23.04.2018 02:02 16,0 C 14,4 C 13,3 C 90 % 15 lf 1010,9 hPa 0,0 l/m 0 min 0 min 0 W/m 13,5 km/h (3 Bft) 93,62 %
23.04.2018 02:04 16,0 C 14,4 C 13,3 C 90 % 15 lf 1010,9 hPa 0,0 l/m 0 min 0 min 0 W/m 13,5 km/h (3 Bft) 95,74 %
23.04.2018 02:06 16,0 C 14,4 C 13,3 C 90 % 15 lf 1010,9 hPa 0,0 l/m 0 min 0 min 0 W/m 11,3 km/h (2 Bft) 93,48 %
23.04.2018 02:08 16,0 C 14,4 C 13,3 C 90 % 15 lf 1010,9 hPa 0,0 l/m 0 min 2 min 0 W/m 18,0 km/h (3 Bft) 95,74 %
23.04.2018 02:10 16,0 C 14,4 C 13,3 C 90 % 15 lf 1010,8 hPa 0,0 l/m 0 min 2 min 0 W/m 13,5 km/h (3 Bft) 97,87 %
23.04.2018 02:12 16,0 C 14,4 C 13,3 C 90 % 15 lf 1010,8 hPa 0,0 l/m 0 min 2 min 0 W/m 11,3 km/h (2 Bft) 97,87 %
23.04.2018 02:14 16,0 C 14,4 C 13,3 C 90 % 15 lf 1010,8 hPa 0,0 l/m 0 min 0 min 0 W/m 11,3 km/h (2 Bft) 97,87 %
23.04.2018 02:16 16,0 C 14,4 C 13,3 C 90 % 15 lf 1010,8 hPa 0,0 l/m 0 min 0 min 0 W/m 9,0 km/h (2 Bft) 89,36 %
23.04.2018 02:18 16,0 C 14,4 C 13,3 C 90 % 15 lf 1010,8 hPa 0,0 l/m 0 min 0 min 0 W/m 15,8 km/h (3 Bft) 95,74 %
23.04.2018 02:20 15,9 C 14,4 C 13,3 C 90 % 15 lf 1010,8 hPa 0,0 l/m 0 min 0 min 0 W/m 15,8 km/h (3 Bft) 93,48 %
23.04.2018 02:22 15,9 C 14,4 C 13,3 C 91 % 15 lf 1010,7 hPa 0,0 l/m 0 min 0 min 0 W/m 13,5 km/h (3 Bft) 95,74 %
23.04.2018 02:24 16,0 C 14,4 C 13,3 C 91 % 15 lf 1010,7 hPa 0,0 l/m 0 min 0 min 0 W/m 9,0 km/h (2 Bft) 93,62 %
23.04.2018 02:26 15,9 C 14,4 C 13,3 C 91 % 15 lf 1010,7 hPa 0,0 l/m 0 min 0 min 0 W/m 11,3 km/h (2 Bft) 95,74 %
23.04.2018 02:28 15,9 C 14,4 C 13,3 C 91 % 15 lf 1010,7 hPa 0,0 l/m 0 min 0 min 0 W/m 11,3 km/h (2 Bft) 95,74 %
23.04.2018 02:30 16,0 C 14,4 C 13,3 C 91 % 15 lf 1010,7 hPa 0,0 l/m 0 min 0 min 0 W/m 13,5 km/h (3 Bft) 95,65 %
23.04.2018 02:32 15,9 C 14,4 C 13,3 C 91 % 15 lf 1010,7 hPa 0,0 l/m 0 min 0 min 0 W/m 15,8 km/h (3 Bft) 93,62 %
23.04.2018 02:34 15,9 C 14,4 C 13,3 C 91 % 15 lf 1010,7 hPa 0,0 l/m 0 min 0 min 0 W/m 13,5 km/h (3 Bft) 95,74 %
23.04.2018 02:36 15,9 C 14,4 C 13,3 C 91 % 15 lf 1010,7 hPa 0,0 l/m 0 min 0 min 0 W/m 11,3 km/h (2 Bft) 95,74 %
23.04.2018 02:38 15,9 C 14,4 C 13,3 C 91 % 15 lf 1010,7 hPa 0,0 l/m 0 min 0 min 0 W/m 6,8 km/h (2 Bft) 93,62 %
23.04.2018 02:40 15,9 C 14,4 C 13,3 C 91 % 15 lf 1010,7 hPa 0,0 l/m 0 min 0 min 0 W/m 4,5 km/h (1 Bft) 93,62 %
23.04.2018 02:42 15,9 C 14,4 C 13,3 C 91 % 15 lf 1010,7 hPa 0,0 l/m 0 min 0 min 0 W/m 6,8 km/h (2 Bft) 95,65 %
23.04.2018 02:44 15,9 C 14,4 C 13,3 C 91 % 15 lf 1010,7 hPa 0,0 l/m 0 min 0 min 0 W/m 9,0 km/h (2 Bft) 95,74 %
23.04.2018 02:46 15,9 C 14,4 C 13,3 C 91 % 15 lf 1010,7 hPa 0,0 l/m 0 min 0 min 0 W/m 6,8 km/h (2 Bft) 95,74 %
23.04.2018 02:48 15,9 C 14,4 C 13,3 C 91 % 15 lf 1010,7 hPa 0,0 l/m 0 min 0 min 0 W/m 6,8 km/h (2 Bft) 93,62 %
23.04.2018 02:50 15,9 C 14,4 C 13,3 C 91 % 15 lf 1010,7 hPa 0,0 l/m 0 min 0 min 0 W/m 6,8 km/h (2 Bft) 95,74 %
23.04.2018 02:52 15,9 C 14,4 C 13,3 C 91 % 15 lf 1010,7 hPa 0,0 l/m 0 min 0 min 0 W/m 4,5 km/h (1 Bft) 95,74 %
23.04.2018 02:54 15,9 C 14,4 C 13,3 C 91 % 15 lf 1010,6 hPa 0,0 l/m 0 min 0 min 0 W/m 4,5 km/h (1 Bft) 95,65 %
23.04.2018 02:56 15,9 C 14,4 C 13,3 C 91 % 15 lf 1010,6 hPa 0,0 l/m 0 min 0 min 0 W/m 6,8 km/h (2 Bft) 95,74 %
23.04.2018 02:58 15,9 C 14,4 C 13,3 C 91 % 15 lf 1010,7 hPa 0,0 l/m 0 min 0 min 0 W/m 6,8 km/h (2 Bft) 93,62 %
23.04.2018 03:00 15,9 C 14,4 C 13,3 C 91 % 15 lf 1010,8 hPa 0,0 l/m 0 min 0 min 0 W/m 11,3 km/h (2 Bft) 95,74 %
23.04.2018 03:02 15,8 C 14,4 C 13,3 C 91 % 15 lf 1010,8 hPa 0,0 l/m 0 min 0 min 0 W/m 9,0 km/h (2 Bft) 93,62 %
23.04.2018 03:04 15,8 C 14,4 C 13,3 C 91 % 15 lf 1010,7 hPa 0,0 l/m 0 min 0 min 0 W/m 6,8 km/h (2 Bft) 93,62 %
23.04.2018 03:06 15,8 C 14,4 C 13,3 C 91 % 15 lf 1010,7 hPa 0,0 l/m 0 min 0 min 0 W/m 6,8 km/h (2 Bft) 95,65 %
23.04.2018 03:08 15,8 C 14,4 C 13,3 C 91 % 15 lf 1010,8 hPa 0,0 l/m 0 min 0 min 0 W/m 6,8 km/h (2 Bft) 95,74 %
23.04.2018 03:10 15,8 C 14,4 C 13,3 C 91 % 15 lf 1010,7 hPa 0,0 l/m 0 min 0 min 0 W/m 4,5 km/h (1 Bft) 97,87 %
23.04.2018 03:12 15,8 C 14,4 C 13,3 C 91 % 15 lf 1010,6 hPa 0,0 l/m 0 min 0 min 0 W/m 4,5 km/h (1 Bft) 97,87 %
23.04.2018 03:14 15,8 C 14,4 C 13,3 C 91 % 15 lf 1010,7 hPa 0,0 l/m 0 min 0 min 0 W/m 6,8 km/h (2 Bft) 100,00 %
23.04.2018 03:16 15,8 C 14,4 C 13,3 C 91 % 15 lf 1010,7 hPa 0,0 l/m 0 min 0 min 0 W/m 4,5 km/h (1 Bft) 97,83 %
23.04.2018 03:18 15,8 C 14,4 C 13,3 C 91 % 15 lf 1010,7 hPa 0,0 l/m 0 min 0 min 0 W/m 6,8 km/h (2 Bft) 100,00 %
23.04.2018 03:20 15,8 C 13,9 C 12,8 C 91 % 15 lf 1010,7 hPa 0,0 l/m 0 min 0 min 0 W/m 4,5 km/h (1 Bft) 93,62 %
23.04.2018 03:22 15,7 C 13,9 C 12,8 C 91 % 15 lf 1010,7 hPa 0,0 l/m 0 min 0 min 0 W/m 4,5 km/h (1 Bft) 100,00 %
23.04.2018 03:24 15,7 C 13,9 C 12,8 C 91 % 15 lf 1010,8 hPa 0,0 l/m 0 min 0 min 0 W/m 6,8 km/h (2 Bft) 95,74 %
23.04.2018 03:26 15,7 C 13,9 C 12,8 C 91 % 15 lf 1010,8 hPa 0,0 l/m 0 min 0 min 0 W/m 4,5 km/h (1 Bft) 97,87 %
23.04.2018 03:28 15,7 C 13,9 C 12,8 C 91 % 15 lf 1010,8 hPa 0,0 l/m 0 min 0 min 0 W/m 4,5 km/h (1 Bft) 100,00 %
23.04.2018 03:30 15,7 C 13,9 C 12,8 C 91 % 15 lf 1010,7 hPa 0,0 l/m 0 min 0 min 0 W/m 4,5 km/h (1 Bft) 100,00 %
23.04.2018 03:32 15,7 C 13,9 C 12,8 C 91 % 15 lf 1010,8 hPa 0,0 l/m 0 min 0 min 0 W/m 4,5 km/h (1 Bft) 100,00 %
23.04.2018 03:34 15,6 C 13,9 C 12,8 C 91 % 15 lf 1010,7 hPa 0,0 l/m 0 min 0 min 0 W/m 6,8 km/h (2 Bft) 97,87 %
23.04.2018 03:36 15,6 C 13,9 C 12,8 C 91 % 15 lf 1010,7 hPa 0,0 l/m 0 min 0 min 0 W/m 4,5 km/h (1 Bft) 93,62 %
23.04.2018 03:38 15,6 C 13,9 C 12,8 C 91 % 15 lf 1010,7 hPa 0,0 l/m 0 min 0 min 0 W/m 6,8 km/h (2 Bft) 95,74 %
23.04.2018 03:40 15,6 C 13,9 C 12,8 C 91 % 15 lf 1010,8 hPa 0,0 l/m 0 min 0 min 0 W/m 6,8 km/h (2 Bft) 97,83 %
23.04.2018 03:42 15,6 C 13,9 C 12,8 C 91 % 15 lf 1010,7 hPa 0,0 l/m 0 min 0 min 0 W/m 6,8 km/h (2 Bft) 97,87 %
23.04.2018 03:44 15,5 C 13,9 C 12,8 C 91 % 15 lf 1010,7 hPa 0,0 l/m 0 min 0 min 0 W/m 6,8 km/h (2 Bft) 97,87 %
23.04.2018 03:46 15,5 C 13,9 C 12,8 C 91 % 15 lf 1010,8 hPa 0,0 l/m 0 min 0 min 0 W/m 6,8 km/h (2 Bft) 95,74 %
23.04.2018 03:48 15,5 C 13,9 C 12,8 C 91 % 15 lf 1010,8 hPa 0,0 l/m 0 min 0 min 0 W/m 4,5 km/h (1 Bft) 100,00 %
23.04.2018 03:50 15,4 C 13,9 C 12,8 C 91 % 15 lf 1010,7 hPa 0,0 l/m 0 min 0 min 0 W/m 4,5 km/h (1 Bft) 97,87 %
23.04.2018 03:52 15,4 C 13,9 C 12,8 C 91 % 15 lf 1010,7 hPa 0,0 l/m 0 min 0 min 0 W/m 6,8 km/h (2 Bft) 91,30 %
23.04.2018 03:54 15,4 C 13,9 C 12,8 C 91 % 15 lf 1010,7 hPa 0,0 l/m 0 min 0 min 0 W/m 4,5 km/h (1 Bft) 95,74 %
23.04.2018 03:56 15,4 C 13,9 C 12,8 C 91 % 15 lf 1010,7 hPa 0,0 l/m 0 min 0 min 0 W/m 4,5 km/h (1 Bft) 93,62 %
23.04.2018 03:58 15,4 C 13,9 C 12,8 C 92 % 15 lf 1010,8 hPa 0,0 l/m 0 min 0 min 0 W/m 6,8 km/h (2 Bft) 97,87 %
23.04.2018 04:00 15,3 C 13,9 C 12,8 C 92 % 15 lf 1010,8 hPa 0,0 l/m 0 min 0 min 0 W/m 6,8 km/h (2 Bft) 97,87 %
23.04.2018 04:02 15,3 C 13,9 C 12,8 C 92 % 15 lf 1010,9 hPa 0,0 l/m 0 min 0 min 0 W/m 6,8 km/h (2 Bft) 100,00 %
23.04.2018 04:04 15,3 C 13,9 C 12,8 C 92 % 15 lf 1011,0 hPa 0,0 l/m 0 min 0 min 0 W/m 9,0 km/h (2 Bft) 93,48 %
23.04.2018 04:06 15,3 C 13,9 C 12,8 C 92 % 15 lf 1010,9 hPa 0,0 l/m 0 min 0 min 0 W/m 6,8 km/h (2 Bft) 93,62 %
23.04.2018 04:08 15,3 C 13,9 C 12,8 C 92 % 15 lf 1011,0 hPa 0,0 l/m 0 min 0 min 0 W/m 11,3 km/h (2 Bft) 97,87 %
23.04.2018 04:10 15,2 C 13,9 C 12,8 C 92 % 15 lf 1011,0 hPa 0,0 l/m 0 min 0 min 0 W/m 9,0 km/h (2 Bft) 97,87 %
23.04.2018 04:12 15,2 C 13,9 C 12,8 C 92 % 15 lf 1010,9 hPa 0,0 l/m 0 min 0 min 0 W/m 9,0 km/h (2 Bft) 97,87 %
23.04.2018 04:14 15,2 C 13,9 C 12,8 C 92 % 15 lf 1010,9 hPa 0,0 l/m 0 min 0 min 0 W/m 9,0 km/h (2 Bft) 97,87 %
23.04.2018 04:16 15,2 C 13,9 C 12,8 C 92 % 15 lf 1010,9 hPa 0,0 l/m 0 min 0 min 0 W/m 11,3 km/h (2 Bft) 95,65 %
23.04.2018 04:18 15,2 C 13,9 C 12,8 C 92 % 15 lf 1010,9 hPa 0,0 l/m 0 min 0 min 0 W/m 6,8 km/h (2 Bft) 95,74 %
23.04.2018 04:20 15,2 C 13,9 C 12,8 C 92 % 15 lf 1011,0 hPa 0,0 l/m 0 min 0 min 0 W/m 13,5 km/h (3 Bft) 97,87 %
23.04.2018 04:22 15,1 C 13,9 C 12,8 C 92 % 15 lf 1010,9 hPa 0,0 l/m 0 min 0 min 0 W/m 9,0 km/h (2 Bft) 97,87 %
23.04.2018 04:24 15,1 C 13,9 C 12,8 C 92 % 15 lf 1010,9 hPa 0,0 l/m 0 min 0 min 0 W/m 11,3 km/h (2 Bft) 93,62 %
23.04.2018 04:26 15,1 C 13,9 C 12,8 C 93 % 15 lf 1010,9 hPa 0,0 l/m 0 min 0 min 0 W/m 9,0 km/h (2 Bft) 97,83 %
23.04.2018 04:28 15,1 C 13,9 C 12,8 C 93 % 15 lf 1011,0 hPa 0,0 l/m 0 min 0 min 0 W/m 9,0 km/h (2 Bft) 93,62 %
23.04.2018 04:30 15,1 C 13,9 C 12,8 C 93 % 15 lf 1011,0 hPa 0,0 l/m 0 min 0 min 0 W/m 9,0 km/h (2 Bft) 97,87 %
23.04.2018 04:32 15,1 C 13,9 C 12,8 C 93 % 15 lf 1011,0 hPa 0,0 l/m 0 min 0 min 0 W/m 11,3 km/h (2 Bft) 91,49 %
23.04.2018 04:34 15,1 C 13,9 C 12,8 C 93 % 15 lf 1010,9 hPa 0,0 l/m 0 min 0 min 0 W/m 6,8 km/h (2 Bft) 97,87 %
23.04.2018 04:36 15,1 C 13,9 C 12,8 C 93 % 15 lf 1010,9 hPa 0,0 l/m 0 min 0 min 0 W/m 13,5 km/h (3 Bft) 95,74 %
23.04.2018 04:38 15,1 C 13,9 C 12,8 C 93 % 15 lf 1011,0 hPa 0,0 l/m 0 min 0 min 0 W/m 9,0 km/h (2 Bft) 97,87 %
23.04.2018 04:40 15,1 C 13,9 C 12,8 C 93 % 15 lf 1011,1 hPa 0,0 l/m 0 min 0 min 0 W/m 13,5 km/h (3 Bft) 97,83 %
23.04.2018 04:42 15,0 C 13,9 C 12,8 C 93 % 15 lf 1011,2 hPa 0,0 l/m 0 min 0 min 0 W/m 15,8 km/h (3 Bft) 97,87 %
23.04.2018 04:44 15,0 C 13,9 C 12,8 C 93 % 15 lf 1011,4 hPa 0,0 l/m 0 min 0 min 0 W/m 15,8 km/h (3 Bft) 93,62 %
23.04.2018 04:46 15,0 C 13,9 C 12,8 C 93 % 15 lf 1011,4 hPa 0,0 l/m 0 min 2 min 0 W/m 15,8 km/h (3 Bft) 93,75 %
23.04.2018 04:48 15,0 C 13,9 C 12,8 C 93 % 15 lf 1011,4 hPa 0,0 l/m 0 min 2 min 0 W/m 15,8 km/h (3 Bft) 97,87 %
23.04.2018 04:50 14,9 C 13,9 C 12,8 C 93 % 15 lf 1011,4 hPa 0,0 l/m 0 min 2 min 0 W/m 22,5 km/h (4 Bft) 97,83 %
23.04.2018 04:52 14,9 C 13,9 C 12,8 C 93 % 15 lf 1011,3 hPa 0,0 l/m 0 min 0 min 0 W/m 18,0 km/h (3 Bft) 95,74 %
23.04.2018 04:54 14,9 C 13,9 C 12,8 C 93 % 15 lf 1011,3 hPa 0,0 l/m 0 min 0 min 0 W/m 15,8 km/h (3 Bft) 97,87 %
23.04.2018 04:56 14,9 C 13,9 C 12,8 C 93 % 15 lf 1011,2 hPa 0,0 l/m 0 min 0 min 0 W/m 11,3 km/h (2 Bft) 100,00 %
23.04.2018 04:58 14,9 C 13,9 C 12,8 C 93 % 15 lf 1011,2 hPa 0,0 l/m 0 min 0 min 0 W/m 13,5 km/h (3 Bft) 100,00 %
23.04.2018 05:00 14,9 C 13,9 C 12,8 C 93 % 15 lf 1011,2 hPa 0,0 l/m 0 min 0 min 0 W/m 13,5 km/h (3 Bft) 95,74 %
23.04.2018 05:02 14,9 C 13,9 C 12,8 C 93 % 15 lf 1011,3 hPa 0,0 l/m 0 min 0 min 0 W/m 15,8 km/h (3 Bft) 93,48 %
23.04.2018 05:04 14,9 C 13,9 C 12,8 C 93 % 15 lf 1011,3 hPa 0,0 l/m 0 min 0 min 0 W/m 13,5 km/h (3 Bft) 97,87 %
23.04.2018 05:06 14,9 C 13,9 C 12,8 C 93 % 15 lf 1011,4 hPa 0,0 l/m 0 min 0 min 0 W/m 13,5 km/h (3 Bft) 95,74 %
23.04.2018 05:08 14,9 C 13,9 C 12,8 C 92 % 15 lf 1011,4 hPa 0,0 l/m 0 min 0 min 0 W/m 13,5 km/h (3 Bft) 97,87 %
23.04.2018 05:10 14,9 C 13,9 C 12,8 C 92 % 15 lf 1011,4 hPa 0,0 l/m 0 min 0 min 0 W/m 13,5 km/h (3 Bft) 97,87 %
23.04.2018 05:12 15,0 C 13,9 C 12,8 C 92 % 15 lf 1011,4 hPa 0,0 l/m 0 min 0 min 0 W/m 11,3 km/h (2 Bft) 97,87 %
23.04.2018 05:14 15,0 C 13,9 C 12,8 C 92 % 15 lf 1011,5 hPa 0,0 l/m 0 min 0 min 0 W/m 9,0 km/h (2 Bft) 95,65 %
23.04.2018 05:16 15,0 C 13,9 C 12,8 C 92 % 15 lf 1011,5 hPa 0,0 l/m 0 min 0 min 0 W/m 13,5 km/h (3 Bft) 93,62 %
23.04.2018 05:18 15,0 C 13,9 C 12,8 C 92 % 15 lf 1011,4 hPa 0,0 l/m 0 min 0 min 0 W/m 13,5 km/h (3 Bft) 95,74 %
23.04.2018 05:20 15,0 C 13,9 C 12,8 C 92 % 15 lf 1011,5 hPa 0,0 l/m 0 min 0 min 0 W/m 15,8 km/h (3 Bft) 97,87 %
23.04.2018 05:22 15,1 C 13,9 C 12,8 C 92 % 15 lf 1011,5 hPa 0,0 l/m 0 min 0 min 0 W/m 11,3 km/h (2 Bft) 95,74 %
23.04.2018 05:24 15,0 C 13,9 C 12,8 C 92 % 15 lf 1011,5 hPa 0,0 l/m 0 min 0 min 0 W/m 11,3 km/h (2 Bft) 93,62 %
23.04.2018 05:26 15,1 C 13,9 C 12,8 C 92 % 15 lf 1011,5 hPa 0,0 l/m 0 min 0 min 0 W/m 13,5 km/h (3 Bft) 95,65 %
23.04.2018 05:28 15,1 C 13,9 C 12,8 C 92 % 15 lf 1011,5 hPa 0,0 l/m 0 min 0 min 0 W/m 9,0 km/h (2 Bft) 97,87 %
23.04.2018 05:30 15,1 C 13,9 C 12,8 C 92 % 15 lf 1011,5 hPa 0,0 l/m 0 min 0 min 0 W/m 11,3 km/h (2 Bft) 95,74 %
23.04.2018 05:32 15,1 C 13,9 C 12,8 C 92 % 15 lf 1011,5 hPa 0,0 l/m 0 min 0 min 0 W/m 13,5 km/h (3 Bft) 97,87 %
23.04.2018 05:34 15,1 C 13,9 C 12,8 C 92 % 15 lf 1011,5 hPa 0,0 l/m 0 min 0 min 0 W/m 13,5 km/h (3 Bft) 93,62 %
23.04.2018 05:35 15,1 C 13,9 C 12,8 C 92 % 15 lf 1011,6 hPa 0,0 l/m 0 min 0 min 0 W/m 13,5 km/h (3 Bft) 97,37 %
23.04.2018 05:40 15,1 C 13,9 C 12,8 C 92 % 15 lf 1011,4 hPa 0,0 l/m 0 min 0 min 0 W/m 9,0 km/h (2 Bft) 100,00 %
23.04.2018 05:42 15,1 C 13,9 C 12,8 C 92 % 15 lf 1011,5 hPa 0,0 l/m 0 min 0 min 0 W/m 9,0 km/h (2 Bft) 97,87 %
23.04.2018 05:44 15,1 C 13,9 C 12,8 C 93 % 15 lf 1011,4 hPa 0,0 l/m 0 min 0 min 0 W/m 11,3 km/h (2 Bft) 95,74 %
23.04.2018 05:46 15,1 C 13,9 C 12,8 C 93 % 15 lf 1011,4 hPa 0,0 l/m 0 min 0 min 0 W/m 15,8 km/h (3 Bft) 93,75 %
23.04.2018 05:48 15,0 C 13,9 C 12,8 C 93 % 15 lf 1011,4 hPa 0,0 l/m 0 min 0 min 0 W/m 11,3 km/h (2 Bft) 95,83 %
23.04.2018 05:50 15,0 C 13,9 C 12,8 C 93 % 14 lf 1011,5 hPa 0,0 l/m 0 min 0 min 0 W/m 15,8 km/h (3 Bft) 93,48 %
23.04.2018 05:52 15,0 C 13,9 C 12,8 C 92 % 13 lf 1011,6 hPa 0,0 l/m 0 min 0 min 0 W/m 15,8 km/h (3 Bft) 95,74 %
23.04.2018 05:54 15,0 C 13,9 C 12,8 C 92 % 11 lf 1011,7 hPa 0,0 l/m 0 min 0 min 0 W/m 11,3 km/h (2 Bft) 91,49 %
23.04.2018 05:56 14,9 C 13,9 C 12,8 C 92 % 6 lf 1011,7 hPa 0,0 l/m 0 min 0 min 0 W/m 13,5 km/h (3 Bft) 91,49 %
23.04.2018 05:58 14,9 C 13,9 C 12,8 C 92 % 4 lf 1011,7 hPa 0,0 l/m 0 min 0 min 0 W/m 11,3 km/h (2 Bft) 95,74 %
23.04.2018 06:00 14,9 C 13,9 C 12,2 C 92 % 3 lf 1011,6 hPa 0,0 l/m 0 min 0 min 0 W/m 13,5 km/h (3 Bft) 95,74 %
23.04.2018 06:02 14,9 C 13,9 C 12,2 C 92 % 2 lf 1011,6 hPa 0,0 l/m 0 min 0 min 0 W/m 18,0 km/h (3 Bft) 93,62 %
23.04.2018 06:04 14,8 C 13,9 C 12,2 C 92 % 1 lf 1011,7 hPa 0,0 l/m 0 min 0 min 0 W/m 15,8 km/h (3 Bft) 93,62 %
23.04.2018 06:07 14,8 C 13,9 C 12,2 C 92 % 1 lf 1011,8 hPa 0,0 l/m 0 min 0 min 0 W/m 13,5 km/h (3 Bft) 93,62 %
23.04.2018 06:08 14,8 C 13,9 C 12,2 C 92 % 1 lf 1011,8 hPa 0,0 l/m 0 min 0 min 0 W/m 13,5 km/h (3 Bft) 94,68 %
23.04.2018 06:10 14,7 C 13,9 C 12,2 C 92 % 1 lf 1011,8 hPa 0,0 l/m 0 min 0 min 0 W/m 11,3 km/h (2 Bft) 97,87 %
23.04.2018 06:12 14,7 C 13,9 C 12,2 C 92 % 1 lf 1011,7 hPa 0,0 l/m 0 min 0 min 0 W/m 11,3 km/h (2 Bft) 97,83 %
23.04.2018 06:14 14,7 C 13,9 C 12,2 C 92 % 1 lf 1011,7 hPa 0,0 l/m 0 min 0 min 0 W/m 9,0 km/h (2 Bft) 97,87 %
23.04.2018 06:16 14,7 C 13,9 C 12,2 C 92 % 1 lf 1011,8 hPa 0,0 l/m 0 min 0 min 0 W/m 11,3 km/h (2 Bft) 97,92 %
23.04.2018 06:18 14,7 C 13,9 C 12,2 C 92 % 1 lf 1011,7 hPa 0,0 l/m 0 min 0 min 0 W/m 6,8 km/h (2 Bft) 97,92 %
23.04.2018 06:20 14,7 C 13,9 C 12,2 C 92 % 1 lf 1011,6 hPa 0,0 l/m 0 min 0 min 0 W/m 6,8 km/h (2 Bft) 97,87 %
23.04.2018 06:22 14,6 C 13,9 C 12,2 C 92 % 1 lf 1011,6 hPa 0,0 l/m 0 min 0 min 0 W/m 4,5 km/h (1 Bft) 93,48 %
23.04.2018 06:24 14,6 C 13,9 C 12,2 C 92 % 1 lf 1011,8 hPa 0,0 l/m 0 min 0 min 5 W/m 9,0 km/h (2 Bft) 93,62 %
23.04.2018 06:26 14,6 C 13,9 C 12,2 C 92 % 1 lf 1011,8 hPa 0,0 l/m 0 min 0 min 5 W/m 6,8 km/h (2 Bft) 95,74 %
23.04.2018 06:28 14,6 C 13,3 C 11,7 C 92 % 1 lf 1011,8 hPa 0,0 l/m 0 min 0 min 6 W/m 6,8 km/h (2 Bft) 93,62 %
23.04.2018 06:30 14,6 C 13,3 C 11,7 C 92 % 1 lf 1011,8 hPa 0,0 l/m 0 min 0 min 7 W/m 9,0 km/h (2 Bft) 97,87 %
23.04.2018 06:32 14,4 C 13,3 C 11,7 C 92 % 0 lf 1011,9 hPa 0,0 l/m 0 min 0 min 8 W/m 11,3 km/h (2 Bft) 97,87 %
23.04.2018 06:34 14,4 C 13,3 C 11,7 C 91 % 0 lf 1012,0 hPa 0,0 l/m 0 min 0 min 11 W/m 13,5 km/h (3 Bft) 95,65 %
23.04.2018 06:36 14,3 C 13,3 C 11,7 C 91 % 0 lf 1011,9 hPa 0,0 l/m 0 min 0 min 12 W/m 6,8 km/h (2 Bft) 95,74 %
23.04.2018 06:38 14,2 C 13,3 C 11,7 C 91 % 0 lf 1012,0 hPa 0,0 l/m 0 min 0 min 13 W/m 13,5 km/h (3 Bft) 95,74 %
23.04.2018 06:40 14,2 C 13,3 C 11,7 C 90 % 0 lf 1012,1 hPa 0,0 l/m 0 min 0 min 14 W/m 13,5 km/h (3 Bft) 97,87 %
23.04.2018 06:42 14,2 C 13,3 C 11,7 C 90 % 0 lf 1012,1 hPa 0,0 l/m 0 min 0 min 16 W/m 6,8 km/h (2 Bft) 97,87 %
23.04.2018 06:44 14,2 C 13,3 C 11,7 C 90 % 0 lf 1012,0 hPa 0,0 l/m 0 min 0 min 15 W/m 9,0 km/h (2 Bft) 97,87 %
23.04.2018 06:46 14,1 C 13,3 C 11,7 C 90 % 0 lf 1012,0 hPa 0,0 l/m 0 min 0 min 18 W/m 13,5 km/h (3 Bft) 97,83 %
23.04.2018 06:48 14,0 C 13,3 C 11,7 C 89 % 0 lf 1012,1 hPa 0,0 l/m 0 min 0 min 22 W/m 13,5 km/h (3 Bft) 97,87 %
23.04.2018 06:50 13,9 C 13,3 C 11,7 C 89 % 0 lf 1012,1 hPa 0,0 l/m 0 min 0 min 25 W/m 13,5 km/h (3 Bft) 97,87 %
23.04.2018 06:52 13,9 C 13,3 C 11,7 C 89 % 0 lf 1012,1 hPa 0,0 l/m 0 min 0 min 24 W/m 11,3 km/h (2 Bft) 100,00 %
23.04.2018 06:54 13,9 C 13,9 C 11,7 C 89 % 0 lf 1012,1 hPa 0,0 l/m 0 min 0 min 23 W/m 13,5 km/h (3 Bft) 93,62 %
23.04.2018 06:56 13,9 C 13,9 C 11,7 C 88 % 0 lf 1012,1 hPa 0,0 l/m 0 min 0 min 23 W/m 13,5 km/h (3 Bft) 95,74 %
23.04.2018 06:58 13,9 C 13,9 C 11,7 C 88 % 0 lf 1012,2 hPa 0,0 l/m 0 min 0 min 24 W/m 13,5 km/h (3 Bft) 100,00 %
23.04.2018 07:00 13,9 C 13,9 C 11,7 C 88 % 0 lf 1012,2 hPa 0,0 l/m 0 min 0 min 30 W/m 9,0 km/h (2 Bft) 97,87 %
23.04.2018 07:02 13,8 C 13,9 C 11,7 C 88 % 0 lf 1012,3 hPa 0,0 l/m 0 min 0 min 34 W/m 9,0 km/h (2 Bft) 95,83 %
23.04.2018 07:04 13,8 C 13,9 C 11,7 C 88 % 0 lf 1012,3 hPa 0,0 l/m 0 min 0 min 38 W/m 13,5 km/h (3 Bft) 97,87 %
23.04.2018 07:06 13,8 C 13,9 C 11,7 C 88 % 0 lf 1012,3 hPa 0,0 l/m 0 min 0 min 44 W/m 15,8 km/h (3 Bft) 95,74 %
23.04.2018 07:08 13,8 C 13,9 C 11,7 C 87 % 0 lf 1012,3 hPa 0,0 l/m 0 min 0 min 47 W/m 9,0 km/h (2 Bft) 95,74 %
23.04.2018 07:10 13,8 C 13,9 C 11,7 C 87 % 0 lf 1012,3 hPa 0,0 l/m 0 min 0 min 51 W/m 11,3 km/h (2 Bft) 95,65 %
23.04.2018 07:12 13,8 C 13,9 C 11,7 C 87 % 0 lf 1012,4 hPa 0,0 l/m 2 min 0 min 56 W/m 13,5 km/h (3 Bft) 97,87 %
23.04.2018 07:14 13,8 C 13,9 C 11,7 C 87 % 0 lf 1012,4 hPa 0,0 l/m 0 min 0 min 56 W/m 13,5 km/h (3 Bft) 97,87 %
23.04.2018 07:16 13,8 C 13,9 C 11,7 C 87 % 0 lf 1012,3 hPa 0,0 l/m 0 min 0 min 59 W/m 11,3 km/h (2 Bft) 95,74 %
23.04.2018 07:18 13,8 C 13,9 C 11,7 C 87 % 0 lf 1012,4 hPa 0,0 l/m 0 min 0 min 56 W/m 11,3 km/h (2 Bft) 97,87 %
23.04.2018 07:20 13,8 C 13,9 C 11,7 C 87 % 0 lf 1012,4 hPa 0,0 l/m 0 min 0 min 56 W/m 11,3 km/h (2 Bft) 93,48 %
23.04.2018 07:22 13,8 C 13,9 C 11,7 C 87 % 0 lf 1012,4 hPa 0,0 l/m 0 min 0 min 58 W/m 11,3 km/h (2 Bft) 97,87 %
23.04.2018 07:24 13,8 C 13,9 C 11,7 C 87 % 0 lf 1012,4 hPa 0,0 l/m 0 min 0 min 63 W/m 11,3 km/h (2 Bft) 97,87 %
23.04.2018 07:26 13,8 C 13,9 C 11,7 C 87 % 0 lf 1012,4 hPa 0,0 l/m 0 min 0 min 63 W/m 11,3 km/h (2 Bft) 95,74 %
23.04.2018 07:28 13,8 C 13,9 C 11,7 C 87 % 0 lf 1012,5 hPa 0,0 l/m 0 min 0 min 51 W/m 6,8 km/h (2 Bft) 95,74 %
23.04.2018 07:30 13,8 C 13,9 C 11,7 C 87 % 0 lf 1012,5 hPa 0,0 l/m 0 min 0 min 39 W/m 9,0 km/h (2 Bft) 95,74 %
23.04.2018 07:32 13,8 C 13,9 C 11,7 C 87 % 0 lf 1012,5 hPa 0,0 l/m 0 min 0 min 40 W/m 13,5 km/h (3 Bft) 95,65 %
23.04.2018 07:34 13,8 C 13,9 C 11,7 C 87 % 0 lf 1012,5 hPa 0,0 l/m 0 min 0 min 42 W/m 9,0 km/h (2 Bft) 95,74 %
23.04.2018 07:38 13,8 C 13,9 C 11,7 C 87 % 0 lf 1012,6 hPa 0,0 l/m 0 min 0 min 47 W/m 15,8 km/h (3 Bft) 94,68 %
23.04.2018 07:40 13,8 C 13,9 C 11,7 C 87 % 0 lf 1012,7 hPa 0,0 l/m 0 min 0 min 56 W/m 9,0 km/h (2 Bft) 95,74 %
23.04.2018 07:42 13,8 C 13,9 C 11,7 C 87 % 0 lf 1012,7 hPa 0,0 l/m 0 min 0 min 58 W/m 11,3 km/h (2 Bft) 93,62 %
23.04.2018 07:44 13,8 C 13,9 C 11,7 C 87 % 0 lf 1012,7 hPa 0,0 l/m 0 min 0 min 60 W/m 11,3 km/h (2 Bft) 93,48 %
23.04.2018 07:46 13,8 C 13,9 C 11,7 C 87 % 0 lf 1012,7 hPa 0,0 l/m 0 min 0 min 59 W/m 13,5 km/h (3 Bft) 93,62 %
23.04.2018 07:48 13,8 C 13,9 C 11,7 C 86 % 0 lf 1012,7 hPa 0,0 l/m 0 min 0 min 57 W/m 13,5 km/h (3 Bft) 95,74 %
23.04.2018 07:50 13,8 C 13,9 C 11,7 C 86 % 0 lf 1012,8 hPa 0,0 l/m 0 min 0 min 53 W/m 13,5 km/h (3 Bft) 95,74 %
23.04.2018 07:52 13,8 C 13,9 C 11,7 C 86 % 0 lf 1012,8 hPa 0,0 l/m 0 min 0 min 53 W/m 13,5 km/h (3 Bft) 93,62 %
23.04.2018 07:54 13,8 C 13,9 C 11,7 C 86 % 0 lf 1012,8 hPa 0,0 l/m 0 min 0 min 55 W/m 13,5 km/h (3 Bft) 91,49 %
23.04.2018 07:56 13,8 C 13,9 C 11,7 C 86 % 0 lf 1012,8 hPa 0,0 l/m 0 min 0 min 58 W/m 15,8 km/h (3 Bft) 95,65 %
23.04.2018 07:58 13,8 C 14,4 C 11,7 C 86 % 0 lf 1012,9 hPa 0,0 l/m 0 min 0 min 64 W/m 11,3 km/h (2 Bft) 93,62 %
23.04.2018 08:00 13,8 C 14,4 C 11,7 C 85 % 0 lf 1012,9 hPa 0,0 l/m 0 min 0 min 72 W/m 13,5 km/h (3 Bft) 95,74 %
23.04.2018 08:02 13,8 C 14,4 C 11,7 C 85 % 0 lf 1012,9 hPa 0,0 l/m 0 min 0 min 77 W/m 15,8 km/h (3 Bft) 93,62 %
23.04.2018 08:04 13,8 C 14,4 C 11,7 C 85 % 0 lf 1012,9 hPa 0,0 l/m 0 min 0 min 75 W/m 22,5 km/h (4 Bft) 97,87 %
23.04.2018 08:08 13,9 C 14,4 C 11,7 C 85 % 0 lf 1013,0 hPa 0,0 l/m 0 min 0 min 77 W/m 20,3 km/h (4 Bft) 97,85 %
23.04.2018 08:10 13,9 C 14,4 C 11,7 C 84 % 0 lf 1013,1 hPa 0,0 l/m 0 min 0 min 83 W/m 20,3 km/h (4 Bft) 95,74 %
23.04.2018 08:12 13,9 C 14,4 C 11,7 C 84 % 0 lf 1013,2 hPa 0,0 l/m 0 min 0 min 84 W/m 13,5 km/h (3 Bft) 95,74 %
23.04.2018 08:14 13,9 C 14,4 C 11,7 C 84 % 0 lf 1013,2 hPa 0,0 l/m 0 min 0 min 95 W/m 11,3 km/h (2 Bft) 97,67 %
23.04.2018 08:16 13,9 C 14,4 C 11,7 C 84 % 0 lf 1013,2 hPa 0,0 l/m 0 min 0 min 109 W/m 11,3 km/h (2 Bft) 98,08 %
23.04.2018 08:18 13,9 C 14,4 C 11,7 C 84 % 0 lf 1013,3 hPa 0,0 l/m 0 min 0 min 119 W/m 13,5 km/h (3 Bft) 97,87 %
23.04.2018 08:20 13,9 C 15,0 C 11,7 C 84 % 0 lf 1013,1 hPa 0,0 l/m 0 min 0 min 123 W/m 15,8 km/h (3 Bft) 91,30 %
23.04.2018 08:22 13,9 C 15,0 C 11,7 C 83 % 0 lf 1013,2 hPa 0,0 l/m 0 min 0 min 128 W/m 15,8 km/h (3 Bft) 97,87 %
23.04.2018 08:24 13,9 C 15,0 C 11,7 C 83 % 0 lf 1013,3 hPa 0,0 l/m 0 min 0 min 138 W/m 18,0 km/h (3 Bft) 95,74 %
23.04.2018 08:26 13,9 C 15,0 C 11,7 C 83 % 0 lf 1013,3 hPa 0,0 l/m 2 min 0 min 160 W/m 13,5 km/h (3 Bft) 95,74 %
23.04.2018 08:28 13,9 C 15,0 C 11,7 C 83 % 0 lf 1013,4 hPa 0,0 l/m 2 min 0 min 164 W/m 13,5 km/h (3 Bft) 93,62 %
23.04.2018 08:30 13,9 C 15,0 C 11,7 C 83 % 0 lf 1013,4 hPa 0,0 l/m 2 min 0 min 180 W/m 18,0 km/h (3 Bft) 97,87 %
23.04.2018 08:32 14,0 C 15,0 C 11,7 C 83 % 0 lf 1013,4 hPa 0,0 l/m 2 min 0 min 170 W/m 13,5 km/h (3 Bft) 95,65 %
23.04.2018 08:34 14,0 C 15,0 C 11,7 C 83 % 0 lf 1013,4 hPa 0,0 l/m 2 min 0 min 164 W/m 18,0 km/h (3 Bft) 97,87 %
23.04.2018 08:36 14,0 C 15,0 C 11,7 C 83 % 0 lf 1013,4 hPa 0,0 l/m 0 min 0 min 156 W/m 15,8 km/h (3 Bft) 97,87 %
23.04.2018 08:38 14,0 C 15,0 C 11,7 C 83 % 0 lf 1013,3 hPa 0,0 l/m 0 min 0 min 138 W/m 18,0 km/h (3 Bft) 97,87 %
23.04.2018 08:40 14,0 C 15,0 C 12,2 C 83 % 0 lf 1013,4 hPa 0,0 l/m 0 min 0 min 131 W/m 18,0 km/h (3 Bft) 95,74 %
23.04.2018 08:42 14,0 C 15,0 C 12,2 C 82 % 0 lf 1013,4 hPa 0,0 l/m 0 min 0 min 124 W/m 15,8 km/h (3 Bft) 100,00 %
23.04.2018 08:44 14,0 C 15,0 C 12,2 C 82 % 0 lf 1013,4 hPa 0,0 l/m 0 min 0 min 120 W/m 18,0 km/h (3 Bft) 97,83 %
23.04.2018 08:46 13,9 C 14,4 C 12,2 C 82 % 0 lf 1013,4 hPa 0,0 l/m 0 min 0 min 114 W/m 24,8 km/h (4 Bft) 100,00 %
23.04.2018 08:48 13,9 C 15,0 C 12,2 C 81 % 0 lf 1013,4 hPa 0,0 l/m 0 min 0 min 115 W/m 24,8 km/h (4 Bft) 95,83 %
23.04.2018 08:50 13,9 C 15,0 C 12,2 C 81 % 0 lf 1013,5 hPa 0,0 l/m 0 min 0 min 126 W/m 24,8 km/h (4 Bft) 100,00 %
23.04.2018 08:52 13,9 C 14,4 C 12,2 C 81 % 0 lf 1013,4 hPa 0,0 l/m 0 min 0 min 113 W/m 22,5 km/h (4 Bft) 100,00 %
23.04.2018 08:54 13,9 C 14,4 C 11,7 C 81 % 0 lf 1013,4 hPa 0,0 l/m 0 min 0 min 107 W/m 20,3 km/h (4 Bft) 100,00 %
23.04.2018 08:56 13,9 C 15,0 C 11,7 C 81 % 0 lf 1013,4 hPa 0,0 l/m 0 min 0 min 126 W/m 15,8 km/h (3 Bft) 100,00 %
23.04.2018 08:58 13,8 C 15,0 C 11,7 C 81 % 0 lf 1013,5 hPa 0,0 l/m 0 min 0 min 116 W/m 18,0 km/h (3 Bft) 100,00 %
23.04.2018 09:00 13,8 C 15,0 C 11,7 C 81 % 0 lf 1013,5 hPa 0,0 l/m 0 min 0 min 127 W/m 20,3 km/h (4 Bft) 100,00 %
23.04.2018 09:02 13,8 C 15,0 C 12,2 C 81 % 0 lf 1013,5 hPa 0,0 l/m 0 min 0 min 136 W/m 15,8 km/h (3 Bft) 100,00 %
23.04.2018 09:04 13,8 C 15,6 C 12,2 C 81 % 0 lf 1013,4 hPa 0,0 l/m 0 min 0 min 171 W/m 13,5 km/h (3 Bft) 100,00 %
23.04.2018 09:08 13,8 C 15,6 C 12,2 C 81 % 0 lf 1013,5 hPa 0,0 l/m 0 min 0 min 177 W/m 22,5 km/h (4 Bft) 100,00 %
23.04.2018 09:10 13,8 C 15,6 C 12,2 C 80 % 0 lf 1013,6 hPa 0,0 l/m 0 min 0 min 129 W/m 20,3 km/h (4 Bft) 97,87 %
23.04.2018 09:12 13,8 C 15,0 C 12,2 C 80 % 0 lf 1013,6 hPa 0,0 l/m 0 min 0 min 117 W/m 20,3 km/h (4 Bft) 95,74 %
23.04.2018 09:14 13,8 C 15,0 C 12,2 C 80 % 0 lf 1013,6 hPa 0,0 l/m 0 min 0 min 117 W/m 18,0 km/h (3 Bft) 93,62 %
23.04.2018 09:16 13,8 C 16,7 C 12,2 C 80 % 0 lf 1013,6 hPa 0,0 l/m 2 min 0 min 214 W/m 18,0 km/h (3 Bft) 97,87 %
23.04.2018 09:18 13,8 C 18,9 C 12,8 C 81 % 0 lf 1013,6 hPa 0,0 l/m 2 min 0 min 408 W/m 22,5 km/h (4 Bft) 95,65 %
23.04.2018 09:20 13,9 C 18,9 C 12,8 C 81 % 0 lf 1013,6 hPa 0,0 l/m 2 min 0 min 396 W/m 22,5 km/h (4 Bft) 97,87 %
23.04.2018 09:22 13,9 C 20,0 C 13,3 C 80 % 0 lf 1013,6 hPa 0,0 l/m 2 min 0 min 434 W/m 18,0 km/h (3 Bft) 97,87 %
23.04.2018 09:24 14,0 C 20,6 C 13,9 C 80 % 0 lf 1013,6 hPa 0,0 l/m 2 min 0 min 445 W/m 18,0 km/h (3 Bft) 97,87 %
23.04.2018 09:26 14,1 C 18,9 C 13,9 C 80 % 0 lf 1013,6 hPa 0,0 l/m 2 min 0 min 401 W/m 18,0 km/h (3 Bft) 95,74 %
23.04.2018 09:28 14,2 C 18,3 C 14,4 C 81 % 0 lf 1013,7 hPa 0,0 l/m 2 min 0 min 261 W/m 15,8 km/h (3 Bft) 93,62 %
23.04.2018 09:30 14,2 C 17,8 C 14,4 C 80 % 0 lf 1013,7 hPa 0,0 l/m 2 min 0 min 328 W/m 27,0 km/h (4 Bft) 97,83 %
23.04.2018 09:32 14,2 C 18,3 C 15,0 C 80 % 0 lf 1013,7 hPa 0,0 l/m 2 min 0 min 325 W/m 24,8 km/h (4 Bft) 97,92 %
23.04.2018 09:34 14,2 C 18,9 C 15,0 C 80 % 0 lf 1013,7 hPa 0,0 l/m 2 min 0 min 320 W/m 18,0 km/h (3 Bft) 95,74 %
23.04.2018 09:36 14,3 C 19,4 C 15,0 C 80 % 0 lf 1013,8 hPa 0,0 l/m 2 min 0 min 372 W/m 22,5 km/h (4 Bft) 97,87 %
23.04.2018 09:38 14,4 C 18,9 C 15,0 C 80 % 0 lf 1013,8 hPa 0,0 l/m 2 min 0 min 412 W/m 24,8 km/h (4 Bft) 93,62 %
23.04.2018 09:40 14,5 C 17,8 C 15,0 C 79 % 0 lf 1013,7 hPa 0,0 l/m 2 min 0 min 299 W/m 24,8 km/h (4 Bft) 95,74 %
23.04.2018 09:42 14,5 C 18,3 C 15,0 C 78 % 0 lf 1013,6 hPa 0,0 l/m 2 min 0 min 264 W/m 22,5 km/h (4 Bft) 95,65 %
23.04.2018 09:44 14,6 C 19,4 C 15,0 C 78 % 0 lf 1013,7 hPa 0,0 l/m 2 min 0 min 264 W/m 15,8 km/h (3 Bft) 95,74 %
23.04.2018 09:46 14,7 C 19,4 C 15,0 C 78 % 0 lf 1013,8 hPa 0,0 l/m 2 min 0 min 294 W/m 22,5 km/h (4 Bft) 93,75 %
23.04.2018 09:48 14,7 C 20,6 C 15,6 C 78 % 0 lf 1013,7 hPa 0,0 l/m 2 min 0 min 370 W/m 24,8 km/h (4 Bft) 91,67 %
23.04.2018 09:50 14,8 C 22,2 C 16,7 C 78 % 0 lf 1013,7 hPa 0,0 l/m 2 min 0 min 557 W/m 18,0 km/h (3 Bft) 95,74 %
23.04.2018 09:52 14,9 C 22,2 C 17,8 C 78 % 0 lf 1013,8 hPa 0,0 l/m 2 min 0 min 527 W/m 15,8 km/h (3 Bft) 95,65 %
23.04.2018 09:54 15,0 C 23,3 C 18,3 C 78 % 0 lf 1013,9 hPa 0,0 l/m 2 min 0 min 562 W/m 13,5 km/h (3 Bft) 93,62 %
23.04.2018 09:56 15,2 C 23,9 C 18,9 C 79 % 0 lf 1013,9 hPa 0,0 l/m 2 min 0 min 541 W/m 15,8 km/h (3 Bft) 93,62 %
23.04.2018 09:58 15,3 C 23,9 C 18,3 C 78 % 0 lf 1013,8 hPa 0,0 l/m 2 min 0 min 533 W/m 18,0 km/h (3 Bft) 93,62 %
23.04.2018 10:00 15,4 C 24,4 C 18,9 C 78 % 0 lf 1013,9 hPa 0,0 l/m 2 min 0 min 534 W/m 20,3 km/h (4 Bft) 97,87 %
23.04.2018 10:02 15,4 C 23,3 C 18,9 C 77 % 0 lf 1013,9 hPa 0,0 l/m 2 min 0 min 536 W/m 22,5 km/h (4 Bft) 97,87 %
23.04.2018 10:04 15,5 C 22,2 C 18,9 C 76 % 0 lf 1013,9 hPa 0,0 l/m 2 min 0 min 543 W/m 22,5 km/h (4 Bft) 95,65 %
23.04.2018 10:06 15,6 C 22,8 C 19,4 C 76 % 0 lf 1013,8 hPa 0,0 l/m 2 min 0 min 545 W/m 15,8 km/h (3 Bft) 95,74 %
23.04.2018 10:08 15,7 C 25,0 C 20,0 C 77 % 0 lf 1013,9 hPa 0,0 l/m 2 min 0 min 546 W/m 13,5 km/h (3 Bft) 93,62 %
23.04.2018 10:10 15,8 C 24,4 C 20,0 C 76 % 0 lf 1013,9 hPa 0,0 l/m 2 min 0 min 555 W/m 22,5 km/h (4 Bft) 97,87 %
23.04.2018 10:12 15,8 C 23,9 C 20,0 C 76 % 0 lf 1013,9 hPa 0,0 l/m 2 min 0 min 560 W/m 18,0 km/h (3 Bft) 95,74 %
23.04.2018 10:14 15,9 C 23,3 C 19,4 C 75 % 0 lf 1013,9 hPa 0,0 l/m 2 min 0 min 538 W/m 18,0 km/h (3 Bft) 95,74 %
23.04.2018 10:16 15,9 C 24,4 C 20,0 C 75 % 0 lf 1013,9 hPa 0,0 l/m 2 min 0 min 555 W/m 20,3 km/h (4 Bft) 93,62 %
23.04.2018 10:18 16,0 C 24,4 C 21,1 C 75 % 0 lf 1013,9 hPa 0,0 l/m 2 min 0 min 565 W/m 24,8 km/h (4 Bft) 91,49 %
23.04.2018 10:20 16,1 C 23,9 C 21,1 C 74 % 0 lf 1013,9 hPa 0,0 l/m 2 min 0 min 586 W/m 24,8 km/h (4 Bft) 93,62 %
23.04.2018 10:22 16,2 C 25,6 C 21,7 C 75 % 0 lf 1013,9 hPa 0,0 l/m 2 min 0 min 594 W/m 13,5 km/h (3 Bft) 97,83 %
23.04.2018 10:24 16,2 C 25,6 C 21,7 C 74 % 0 lf 1014,0 hPa 0,0 l/m 2 min 0 min 598 W/m 22,5 km/h (4 Bft) 95,74 %
23.04.2018 10:26 16,3 C 25,0 C 21,7 C 72 % 0 lf 1014,0 hPa 0,0 l/m 2 min 0 min 604 W/m 20,3 km/h (4 Bft) 93,62 %
23.04.2018 10:28 16,4 C 25,0 C 21,7 C 72 % 0 lf 1014,0 hPa 0,0 l/m 2 min 0 min 609 W/m 18,0 km/h (3 Bft) 95,74 %
23.04.2018 10:30 16,4 C 25,0 C 21,7 C 73 % 0 lf 1014,1 hPa 0,0 l/m 2 min 0 min 611 W/m 18,0 km/h (3 Bft) 95,74 %
23.04.2018 10:32 16,6 C 25,0 C 21,7 C 72 % 0 lf 1014,1 hPa 0,0 l/m 2 min 0 min 612 W/m 20,3 km/h (4 Bft) 93,62 %
23.04.2018 10:34 16,6 C 25,0 C 21,1 C 71 % 0 lf 1014,1 hPa 0,0 l/m 2 min 0 min 602 W/m 18,0 km/h (3 Bft) 93,62 %
23.04.2018 10:36 16,7 C 25,0 C 21,7 C 72 % 0 lf 1014,0 hPa 0,0 l/m 2 min 0 min 627 W/m 27,0 km/h (4 Bft) 95,65 %
23.04.2018 10:38 16,7 C 25,6 C 22,2 C 72 % 0 lf 1014,1 hPa 0,0 l/m 2 min 0 min 621 W/m 15,8 km/h (3 Bft) 93,62 %
23.04.2018 10:40 16,8 C 25,6 C 22,8 C 71 % 0 lf 1014,1 hPa 0,0 l/m 2 min 0 min 624 W/m 24,8 km/h (4 Bft) 91,49 %
23.04.2018 10:42 16,8 C 25,0 C 21,7 C 71 % 0 lf 1014,1 hPa 0,0 l/m 2 min 0 min 637 W/m 22,5 km/h (4 Bft) 95,74 %
23.04.2018 10:44 16,8 C 25,0 C 22,2 C 70 % 0 lf 1014,1 hPa 0,0 l/m 2 min 0 min 643 W/m 22,5 km/h (4 Bft) 91,49 %
23.04.2018 10:46 16,9 C 26,1 C 22,8 C 71 % 0 lf 1014,1 hPa 0,0 l/m 2 min 0 min 646 W/m 24,8 km/h (4 Bft) 91,30 %
23.04.2018 10:48 17,0 C 26,1 C 22,8 C 71 % 0 lf 1014,1 hPa 0,0 l/m 2 min 0 min 653 W/m 22,5 km/h (4 Bft) 95,74 %
23.04.2018 10:50 17,1 C 26,7 C 22,8 C 71 % 0 lf 1014,2 hPa 0,0 l/m 2 min 0 min 662 W/m 18,0 km/h (3 Bft) 95,74 %
23.04.2018 10:52 17,2 C 27,2 C 22,8 C 71 % 0 lf 1014,1 hPa 0,0 l/m 2 min 0 min 662 W/m 20,3 km/h (4 Bft) 95,74 %
23.04.2018 10:54 17,2 C 27,2 C 23,3 C 71 % 0 lf 1014,2 hPa 0,0 l/m 2 min 0 min 666 W/m 18,0 km/h (3 Bft) 91,49 %
23.04.2018 10:56 17,3 C 26,1 C 22,8 C 71 % 0 lf 1014,2 hPa 0,0 l/m 2 min 0 min 674 W/m 24,8 km/h (4 Bft) 93,62 %
23.04.2018 10:58 17,4 C 25,6 C 22,2 C 70 % 0 lf 1014,2 hPa 0,0 l/m 2 min 0 min 677 W/m 24,8 km/h (4 Bft) 91,30 %
23.04.2018 11:00 17,4 C 25,6 C 22,2 C 70 % 0 lf 1014,1 hPa 0,0 l/m 2 min 0 min 692 W/m 22,5 km/h (4 Bft) 95,74 %
23.04.2018 11:02 17,5 C 25,6 C 22,2 C 70 % 0 lf 1014,2 hPa 0,0 l/m 2 min 0 min 713 W/m 18,0 km/h (3 Bft) 95,74 %
23.04.2018 11:04 17,6 C 26,1 C 22,2 C 70 % 0 lf 1014,2 hPa 0,0 l/m 2 min 0 min 743 W/m 11,3 km/h (2 Bft) 95,74 %
23.04.2018 11:06 17,7 C 26,1 C 21,1 C 70 % 0 lf 1014,2 hPa 0,0 l/m 2 min 0 min 737 W/m 13,5 km/h (3 Bft) 97,87 %
23.04.2018 11:08 17,8 C 24,4 C 20,0 C 69 % 0 lf 1014,2 hPa 0,0 l/m 2 min 0 min 770 W/m 27,0 km/h (4 Bft) 97,87 %
23.04.2018 11:10 17,8 C 25,6 C 19,4 C 69 % 0 lf 1014,2 hPa 0,0 l/m 2 min 0 min 764 W/m 20,3 km/h (4 Bft) 97,83 %
23.04.2018 11:12 17,9 C 23,9 C 19,4 C 69 % 0 lf 1014,3 hPa 0,0 l/m 2 min 0 min 777 W/m 27,0 km/h (4 Bft) 100,00 %
23.04.2018 11:14 17,9 C 23,3 C 19,4 C 67 % 0 lf 1014,3 hPa 0,0 l/m 2 min 0 min 784 W/m 27,0 km/h (4 Bft) 97,87 %
23.04.2018 11:16 17,8 C 23,3 C 20,0 C 68 % 0 lf 1014,3 hPa 0,0 l/m 2 min 0 min 798 W/m 38,3 km/h (5 Bft) 97,87 %
23.04.2018 11:18 17,8 C 23,3 C 20,6 C 67 % 0 lf 1014,3 hPa 0,0 l/m 2 min 0 min 773 W/m 33,8 km/h (5 Bft) 97,87 %
23.04.2018 11:20 17,7 C 23,9 C 21,7 C 68 % 0 lf 1014,3 hPa 0,0 l/m 2 min 0 min 793 W/m 36,0 km/h (5 Bft) 100,00 %
23.04.2018 11:22 17,7 C 24,4 C 21,7 C 67 % 0 lf 1014,4 hPa 0,0 l/m 2 min 0 min 770 W/m 38,3 km/h (5 Bft) 93,48 %
23.04.2018 11:24 17,7 C 24,4 C 22,2 C 67 % 0 lf 1014,3 hPa 0,0 l/m 2 min 0 min 792 W/m 31,5 km/h (5 Bft) 95,74 %
23.04.2018 11:26 17,7 C 22,8 C 20,6 C 67 % 0 lf 1014,3 hPa 0,0 l/m 2 min 0 min 738 W/m 36,0 km/h (5 Bft) 95,74 %
23.04.2018 11:28 17,7 C 23,9 C 21,7 C 68 % 0 lf 1014,4 hPa 0,0 l/m 2 min 0 min 753 W/m 27,0 km/h (4 Bft) 100,00 %
23.04.2018 11:30 17,7 C 25,6 C 22,8 C 68 % 0 lf 1014,4 hPa 0,0 l/m 2 min 0 min 775 W/m 18,0 km/h (3 Bft) 97,87 %
23.04.2018 11:32 17,7 C 25,6 C 23,3 C 68 % 0 lf 1014,4 hPa 0,0 l/m 2 min 0 min 777 W/m 31,5 km/h (5 Bft) 100,00 %
23.04.2018 11:34 17,8 C 24,4 C 22,8 C 67 % 0 lf 1014,4 hPa 0,0 l/m 2 min 0 min 766 W/m 24,8 km/h (4 Bft) 100,00 %
23.04.2018 11:36 17,9 C 25,0 C 22,8 C 67 % 0 lf 1014,4 hPa 0,0 l/m 2 min 0 min 776 W/m 24,8 km/h (4 Bft) 93,62 %
23.04.2018 11:38 17,9 C 25,6 C 22,8 C 67 % 0 lf 1014,4 hPa 0,0 l/m 2 min 0 min 773 W/m 33,8 km/h (5 Bft) 97,87 %
23.04.2018 11:40 18,0 C 25,0 C 22,8 C 67 % 0 lf 1014,5 hPa 0,0 l/m 2 min 0 min 786 W/m 33,8 km/h (5 Bft) 97,87 %
23.04.2018 11:42 18,1 C 25,0 C 23,3 C 67 % 0 lf 1014,6 hPa 0,0 l/m 2 min 0 min 788 W/m 31,5 km/h (5 Bft) 95,74 %
23.04.2018 11:44 18,1 C 25,0 C 22,8 C 66 % 0 lf 1014,6 hPa 0,0 l/m 2 min 0 min 467 W/m 31,5 km/h (5 Bft) 93,62 %
23.04.2018 11:46 18,1 C 26,1 C 23,9 C 67 % 0 lf 1014,5 hPa 0,0 l/m 2 min 0 min 447 W/m 29,3 km/h (5 Bft) 97,83 %
23.04.2018 11:48 18,2 C 26,1 C 23,3 C 67 % 0 lf 1014,4 hPa 0,0 l/m 2 min 0 min 648 W/m 31,5 km/h (5 Bft) 100,00 %
23.04.2018 11:50 18,3 C 25,6 C 22,8 C 65 % 0 lf 1014,6 hPa 0,0 l/m 2 min 0 min 777 W/m 29,3 km/h (5 Bft) 100,00 %
23.04.2018 11:52 18,3 C 26,1 C 23,9 C 66 % 0 lf 1014,5 hPa 0,0 l/m 2 min 0 min 839 W/m 22,5 km/h (4 Bft) 100,00 %
23.04.2018 11:54 18,4 C 26,1 C 23,9 C 65 % 0 lf 1014,6 hPa 0,0 l/m 2 min 0 min 851 W/m 27,0 km/h (4 Bft) 97,87 %
23.04.2018 11:56 18,4 C 27,2 C 24,4 C 65 % 0 lf 1014,4 hPa 0,0 l/m 2 min 0 min 860 W/m 20,3 km/h (4 Bft) 97,87 %
23.04.2018 11:58 18,6 C 26,7 C 24,4 C 66 % 0 lf 1014,5 hPa 0,0 l/m 2 min 0 min 866 W/m 33,8 km/h (5 Bft) 100,00 %
23.04.2018 12:00 18,6 C 26,1 C 24,4 C 65 % 0 lf 1014,5 hPa 0,0 l/m 2 min 0 min 904 W/m 31,5 km/h (5 Bft) 100,00 %
23.04.2018 12:02 18,7 C 26,1 C 24,4 C 66 % 0 lf 1014,6 hPa 0,0 l/m 2 min 0 min 941 W/m 29,3 km/h (5 Bft) 97,87 %
23.04.2018 12:04 18,8 C 26,7 C 24,4 C 65 % 0 lf 1014,6 hPa 0,0 l/m 2 min 0 min 930 W/m 29,3 km/h (5 Bft) 100,00 %
23.04.2018 12:07 18,7 C 25,0 C 22,2 C 63 % 0 lf 1014,7 hPa 0,0 l/m 3 min 0 min 383 W/m 38,3 km/h (5 Bft) 100,00 %
23.04.2018 12:08 18,7 C 24,4 C 21,7 C 64 % 0 lf 1014,7 hPa 0,0 l/m 1 min 0 min 508 W/m 38,3 km/h (5 Bft) 98,80 %
23.04.2018 12:10 18,6 C 22,2 C 20,6 C 64 % 0 lf 1014,6 hPa 0,0 l/m 0 min 0 min 244 W/m 24,8 km/h (4 Bft) 100,00 %
23.04.2018 12:12 18,5 C 24,4 C 21,1 C 64 % 0 lf 1014,7 hPa 0,0 l/m 2 min 0 min 401 W/m 22,5 km/h (4 Bft) 91,30 %
23.04.2018 12:14 18,6 C 26,1 C 23,3 C 65 % 0 lf 1014,6 hPa 0,0 l/m 2 min 0 min 678 W/m 18,0 km/h (3 Bft) 95,74 %
23.04.2018 12:16 18,6 C 25,0 C 22,8 C 64 % 0 lf 1014,6 hPa 0,0 l/m 0 min 0 min 276 W/m 33,8 km/h (5 Bft) 95,74 %
23.04.2018 12:18 18,6 C 26,1 C 23,3 C 64 % 0 lf 1014,6 hPa 0,0 l/m 2 min 0 min 719 W/m 29,3 km/h (5 Bft) 93,62 %
23.04.2018 12:20 18,7 C 27,2 C 24,4 C 63 % 0 lf 1014,7 hPa 0,0 l/m 2 min 0 min 916 W/m 27,0 km/h (4 Bft) 94,83 %
23.04.2018 12:22 18,8 C 27,8 C 25,6 C 63 % 0 lf 1014,7 hPa 0,0 l/m 2 min 0 min 929 W/m 18,0 km/h (3 Bft) 95,74 %
23.04.2018 12:24 19,0 C 27,2 C 25,0 C 64 % 0 lf 1014,7 hPa 0,0 l/m 2 min 0 min 955 W/m 22,5 km/h (4 Bft) 94,29 %
23.04.2018 12:26 19,1 C 24,4 C 22,8 C 62 % 0 lf 1014,7 hPa 0,0 l/m 2 min 0 min 371 W/m 29,3 km/h (5 Bft) 95,74 %
23.04.2018 12:28 19,0 C 22,8 C 21,1 C 61 % 0 lf 1014,6 hPa 0,0 l/m 0 min 0 min 276 W/m 27,0 km/h (4 Bft) 93,62 %
23.04.2018 12:30 18,9 C 22,8 C 21,1 C 62 % 0 lf 1014,6 hPa 0,0 l/m 0 min 0 min 256 W/m 22,5 km/h (4 Bft) 95,74 %
23.04.2018 12:32 18,9 C 22,8 C 21,1 C 62 % 0 lf 1014,7 hPa 0,0 l/m 0 min 0 min 258 W/m 20,3 km/h (4 Bft) 92,68 %
23.04.2018 12:34 18,8 C 22,2 C 20,6 C 62 % 0 lf 1014,6 hPa 0,0 l/m 0 min 0 min 250 W/m 24,8 km/h (4 Bft) 95,74 %
23.04.2018 12:36 18,8 C 22,2 C 20,6 C 61 % 0 lf 1014,7 hPa 0,0 l/m 0 min 0 min 255 W/m 24,8 km/h (4 Bft) 95,74 %
23.04.2018 12:38 18,7 C 21,7 C 20,0 C 61 % 0 lf 1014,6 hPa 0,0 l/m 0 min 0 min 251 W/m 20,3 km/h (4 Bft) 96,23 %
23.04.2018 12:40 18,7 C 22,8 C 21,1 C 61 % 0 lf 1014,8 hPa 0,0 l/m 0 min 0 min 271 W/m 27,0 km/h (4 Bft) 98,00 %
23.04.2018 12:42 18,7 C 25,6 C 22,2 C 62 % 0 lf 1014,7 hPa 0,0 l/m 2 min 0 min 491 W/m 22,5 km/h (4 Bft) 91,84 %
23.04.2018 12:44 18,8 C 27,8 C 23,9 C 64 % 0 lf 1014,7 hPa 0,0 l/m 2 min 0 min 976 W/m 18,0 km/h (3 Bft) 95,74 %
23.04.2018 12:46 18,9 C 25,6 C 22,8 C 63 % 0 lf 1014,7 hPa 0,0 l/m 2 min 0 min 823 W/m 24,8 km/h (4 Bft) 97,22 %
23.04.2018 12:48 18,9 C 25,0 C 22,8 C 62 % 0 lf 1014,8 hPa 0,0 l/m 0 min 0 min 200 W/m 24,8 km/h (4 Bft) 94,55 %
23.04.2018 12:50 19,0 C 25,0 C 22,2 C 62 % 0 lf 1014,9 hPa 0,0 l/m 0 min 0 min 202 W/m 33,8 km/h (5 Bft) 96,00 %
23.04.2018 12:52 19,0 C 25,6 C 22,2 C 61 % 0 lf 1014,9 hPa 0,0 l/m 2 min 0 min 385 W/m 24,8 km/h (4 Bft) 95,74 %
23.04.2018 12:54 19,1 C 26,1 C 22,8 C 61 % 0 lf 1014,8 hPa 0,0 l/m 2 min 0 min 911 W/m 27,0 km/h (4 Bft) 97,87 %
23.04.2018 12:56 19,1 C 24,4 C 21,1 C 60 % 0 lf 1014,8 hPa 0,0 l/m 2 min 0 min 532 W/m 22,5 km/h (4 Bft) 97,87 %
23.04.2018 12:58 19,1 C 25,6 C 21,7 C 61 % 0 lf 1014,9 hPa 0,0 l/m 2 min 0 min 611 W/m 22,5 km/h (4 Bft) 97,14 %
23.04.2018 13:00 19,1 C 26,1 C 21,1 C 60 % 0 lf 1014,8 hPa 0,0 l/m 2 min 0 min 864 W/m 29,3 km/h (5 Bft) 98,18 %
23.04.2018 13:02 19,2 C 26,7 C 20,6 C 60 % 0 lf 1014,9 hPa 0,0 l/m 2 min 0 min 872 W/m 27,0 km/h (4 Bft) 98,00 %
23.04.2018 13:04 19,2 C 27,8 C 20,6 C 60 % 0 lf 1014,8 hPa 0,0 l/m 2 min 0 min 872 W/m 24,8 km/h (4 Bft) 91,67 %
23.04.2018 13:06 19,2 C 28,3 C 21,1 C 60 % 0 lf 1014,8 hPa 0,0 l/m 2 min 0 min 859 W/m 27,0 km/h (4 Bft) 100,00 %
23.04.2018 13:08 19,3 C 27,8 C 21,1 C 60 % 0 lf 1014,9 hPa 0,0 l/m 2 min 0 min 842 W/m 27,0 km/h (4 Bft) 96,30 %
23.04.2018 13:10 19,5 C 28,3 C 21,1 C 61 % 0 lf 1014,9 hPa 0,0 l/m 2 min 0 min 867 W/m 20,3 km/h (4 Bft) 96,00 %
23.04.2018 13:12 19,6 C 27,8 C 20,6 C 59 % 0 lf 1014,9 hPa 0,0 l/m 2 min 0 min 858 W/m 27,0 km/h (4 Bft) 95,83 %
23.04.2018 13:14 19,7 C 27,8 C 21,1 C 60 % 0 lf 1014,8 hPa 0,0 l/m 2 min 0 min 851 W/m 20,3 km/h (4 Bft) 97,87 %
23.04.2018 13:16 19,8 C 27,8 C 21,1 C 59 % 0 lf 1014,7 hPa 0,0 l/m 2 min 0 min 849 W/m 24,8 km/h (4 Bft) 97,92 %
23.04.2018 13:18 19,8 C 28,3 C 20,6 C 59 % 0 lf 1014,7 hPa 0,0 l/m 2 min 0 min 844 W/m 29,3 km/h (5 Bft) 95,74 %
23.04.2018 13:20 19,9 C 28,9 C 20,6 C 59 % 0 lf 1014,8 hPa 0,0 l/m 2 min 0 min 835 W/m 20,3 km/h (4 Bft) 93,62 %
23.04.2018 13:22 19,9 C 28,3 C 21,1 C 59 % 0 lf 1014,8 hPa 0,0 l/m 2 min 0 min 850 W/m 27,0 km/h (4 Bft) 95,74 %
23.04.2018 13:24 20,0 C 27,8 C 20,6 C 57 % 0 lf 1014,8 hPa 0,0 l/m 2 min 0 min 841 W/m 27,0 km/h (4 Bft) 97,83 %
23.04.2018 13:26 20,1 C 27,8 C 20,6 C 57 % 0 lf 1014,8 hPa 0,0 l/m 2 min 0 min 849 W/m 29,3 km/h (5 Bft) 94,29 %
23.04.2018 13:28 20,1 C 27,8 C 20,6 C 58 % 0 lf 1014,7 hPa 0,0 l/m 2 min 0 min 836 W/m 24,8 km/h (4 Bft) 94,44 %
23.04.2018 13:30 20,1 C 27,8 C 20,6 C 57 % 0 lf 1014,7 hPa 0,0 l/m 2 min 0 min 841 W/m 24,8 km/h (4 Bft) 96,00 %
23.04.2018 13:32 20,1 C 27,8 C 20,6 C 57 % 0 lf 1014,7 hPa 0,0 l/m 2 min 0 min 842 W/m 20,3 km/h (4 Bft) 93,48 %
23.04.2018 13:34 20,2 C 28,3 C 20,6 C 58 % 0 lf 1014,7 hPa 0,0 l/m 2 min 0 min 840 W/m 27,0 km/h (4 Bft) 96,00 %
23.04.2018 13:36 20,2 C 27,2 C 20,0 C 57 % 0 lf 1014,8 hPa 0,0 l/m 2 min 0 min 852 W/m 29,3 km/h (5 Bft) 94,44 %
23.04.2018 13:38 20,2 C 27,2 C 20,0 C 57 % 0 lf 1014,8 hPa 0,0 l/m 2 min 0 min 847 W/m 27,0 km/h (4 Bft) 95,65 %
23.04.2018 13:40 20,1 C 26,7 C 20,0 C 56 % 0 lf 1014,7 hPa 0,0 l/m 2 min 0 min 854 W/m 33,8 km/h (5 Bft) 94,64 %
23.04.2018 13:42 20,1 C 26,1 C 20,0 C 56 % 0 lf 1014,7 hPa 0,0 l/m 2 min 0 min 836 W/m 36,0 km/h (5 Bft) 95,92 %
23.04.2018 13:44 20,0 C 26,7 C 20,0 C 56 % 0 lf 1014,7 hPa 0,0 l/m 2 min 0 min 870 W/m 27,0 km/h (4 Bft) 97,22 %
23.04.2018 13:46 20,0 C 25,6 C 19,4 C 56 % 0 lf 1014,7 hPa 0,0 l/m 2 min 0 min 862 W/m 31,5 km/h (5 Bft) 97,87 %
23.04.2018 13:48 19,9 C 25,6 C 19,4 C 58 % 0 lf 1014,7 hPa 0,0 l/m 2 min 0 min 839 W/m 24,8 km/h (4 Bft) 94,55 %
23.04.2018 13:50 19,9 C 22,8 C 18,9 C 57 % 0 lf 1014,6 hPa 0,0 l/m 2 min 0 min 428 W/m 24,8 km/h (4 Bft) 96,00 %
23.04.2018 13:52 19,7 C 22,2 C 18,3 C 57 % 0 lf 1014,7 hPa 0,0 l/m 0 min 0 min 216 W/m 24,8 km/h (4 Bft) 95,74 %
23.04.2018 13:54 19,7 C 24,4 C 19,4 C 58 % 0 lf 1014,7 hPa 0,0 l/m 2 min 0 min 528 W/m 18,0 km/h (3 Bft) 95,65 %
23.04.2018 13:56 19,7 C 26,1 C 20,0 C 60 % 0 lf 1014,7 hPa 0,0 l/m 2 min 0 min 869 W/m 22,5 km/h (4 Bft) 97,22 %
23.04.2018 13:58 19,7 C 26,7 C 20,0 C 59 % 0 lf 1014,8 hPa 0,0 l/m 2 min 0 min 850 W/m 27,0 km/h (4 Bft) 97,87 %
23.04.2018 14:00 19,8 C 25,6 C 20,0 C 59 % 0 lf 1014,7 hPa 0,0 l/m 2 min 0 min 813 W/m 22,5 km/h (4 Bft) 96,36 %
23.04.2018 14:02 19,8 C 25,0 C 19,4 C 58 % 0 lf 1014,7 hPa 0,0 l/m 0 min 0 min 362 W/m 31,5 km/h (5 Bft) 96,00 %
23.04.2018 14:04 19,8 C 26,1 C 19,4 C 57 % 0 lf 1014,7 hPa 0,0 l/m 2 min 0 min 512 W/m 18,0 km/h (3 Bft) 97,14 %
23.04.2018 14:06 19,8 C 26,7 C 19,4 C 57 % 0 lf 1014,7 hPa 0,0 l/m 2 min 0 min 845 W/m 20,3 km/h (4 Bft) 95,74 %
23.04.2018 14:08 19,8 C 26,1 C 19,4 C 56 % 0 lf 1014,7 hPa 0,0 l/m 2 min 0 min 839 W/m 31,5 km/h (5 Bft) 98,18 %
23.04.2018 14:10 19,8 C 26,7 C 20,0 C 57 % 0 lf 1014,7 hPa 0,0 l/m 2 min 0 min 840 W/m 22,5 km/h (4 Bft) 98,00 %
23.04.2018 14:12 19,8 C 26,7 C 19,4 C 56 % 0 lf 1014,6 hPa 0,0 l/m 2 min 0 min 852 W/m 22,5 km/h (4 Bft) 97,22 %
23.04.2018 14:14 19,8 C 27,2 C 20,0 C 57 % 0 lf 1014,7 hPa 0,0 l/m 2 min 0 min 847 W/m 27,0 km/h (4 Bft) 93,48 %
23.04.2018 14:16 19,8 C 27,8 C 20,0 C 57 % 0 lf 1014,8 hPa 0,0 l/m 2 min 0 min 821 W/m 24,8 km/h (4 Bft) 97,92 %
23.04.2018 14:18 19,9 C 27,8 C 20,0 C 57 % 0 lf 1014,7 hPa 0,0 l/m 2 min 0 min 822 W/m 18,0 km/h (3 Bft) 96,30 %
23.04.2018 14:20 19,9 C 26,7 C 20,0 C 57 % 0 lf 1014,7 hPa 0,0 l/m 2 min 0 min 823 W/m 33,8 km/h (5 Bft) 98,00 %
23.04.2018 14:22 20,0 C 27,8 C 20,0 C 57 % 0 lf 1014,6 hPa 0,0 l/m 2 min 0 min 816 W/m 31,5 km/h (5 Bft) 100,00 %
23.04.2018 14:24 20,1 C 27,8 C 20,6 C 56 % 0 lf 1014,7 hPa 0,0 l/m 2 min 0 min 799 W/m 24,8 km/h (4 Bft) 93,62 %
23.04.2018 14:26 20,2 C 27,8 C 20,6 C 57 % 0 lf 1014,7 hPa 0,0 l/m 2 min 0 min 844 W/m 27,0 km/h (4 Bft) 97,22 %
23.04.2018 14:28 20,2 C 28,3 C 21,1 C 57 % 0 lf 1014,7 hPa 0,0 l/m 2 min 0 min 850 W/m 20,3 km/h (4 Bft) 100,00 %
23.04.2018 14:30 20,3 C 27,8 C 21,1 C 56 % 0 lf 1014,7 hPa 0,0 l/m 2 min 0 min 851 W/m 22,5 km/h (4 Bft) 100,00 %
23.04.2018 14:32 20,4 C 27,8 C 21,1 C 57 % 0 lf 1014,8 hPa 0,0 l/m 2 min 0 min 828 W/m 33,8 km/h (5 Bft) 100,00 %
23.04.2018 14:34 20,4 C 27,2 C 20,6 C 55 % 0 lf 1014,8 hPa 0,0 l/m 2 min 0 min 831 W/m 31,5 km/h (5 Bft) 95,74 %
23.04.2018 14:36 20,4 C 24,4 C 20,0 C 55 % 0 lf 1014,8 hPa 0,0 l/m 2 min 0 min 501 W/m 29,3 km/h (5 Bft) 94,59 %
23.04.2018 14:38 20,3 C 25,0 C 20,0 C 54 % 0 lf 1014,7 hPa 0,0 l/m 0 min 0 min 255 W/m 27,0 km/h (4 Bft) 97,87 %
23.04.2018 14:40 20,3 C 25,6 C 20,6 C 55 % 0 lf 1014,6 hPa 0,0 l/m 2 min 0 min 795 W/m 18,0 km/h (3 Bft) 98,15 %
23.04.2018 14:42 20,3 C 26,7 C 20,6 C 56 % 0 lf 1014,7 hPa 0,0 l/m 2 min 0 min 868 W/m 27,0 km/h (4 Bft) 97,96 %
23.04.2018 14:44 20,3 C 26,7 C 21,1 C 56 % 0 lf 1014,7 hPa 0,0 l/m 2 min 0 min 853 W/m 27,0 km/h (4 Bft) 92,11 %
23.04.2018 14:46 20,4 C 26,7 C 21,1 C 56 % 0 lf 1014,6 hPa 0,0 l/m 2 min 0 min 828 W/m 27,0 km/h (4 Bft) 98,00 %
23.04.2018 14:48 20,4 C 28,3 C 21,7 C 55 % 0 lf 1014,6 hPa 0,0 l/m 2 min 0 min 857 W/m 13,5 km/h (3 Bft) 93,62 %
23.04.2018 14:50 20,4 C 27,2 C 21,1 C 55 % 0 lf 1014,5 hPa 0,0 l/m 2 min 0 min 861 W/m 24,8 km/h (4 Bft) 97,87 %
23.04.2018 14:52 20,5 C 26,7 C 21,1 C 55 % 0 lf 1014,5 hPa 0,0 l/m 2 min 0 min 858 W/m 24,8 km/h (4 Bft) 93,62 %
23.04.2018 14:54 20,5 C 26,7 C 21,7 C 55 % 0 lf 1014,5 hPa 0,0 l/m 2 min 0 min 825 W/m 27,0 km/h (4 Bft) 93,62 %
23.04.2018 14:56 20,6 C 26,7 C 22,2 C 55 % 0 lf 1014,5 hPa 0,0 l/m 2 min 0 min 828 W/m 31,5 km/h (5 Bft) 93,62 %
23.04.2018 14:58 20,6 C 27,8 C 23,3 C 55 % 0 lf 1014,5 hPa 0,0 l/m 2 min 0 min 851 W/m 22,5 km/h (4 Bft) 95,35 %
23.04.2018 15:00 20,6 C 26,1 C 23,3 C 54 % 0 lf 1014,6 hPa 0,0 l/m 2 min 0 min 873 W/m 27,0 km/h (4 Bft) 94,00 %
23.04.2018 15:02 20,6 C 25,0 C 22,8 C 55 % 0 lf 1014,6 hPa 0,0 l/m 2 min 0 min 867 W/m 22,5 km/h (4 Bft) 91,49 %
23.04.2018 15:04 20,6 C 24,4 C 22,2 C 54 % 0 lf 1014,6 hPa 0,0 l/m 0 min 0 min 307 W/m 20,3 km/h (4 Bft) 97,87 %
23.04.2018 15:06 20,6 C 25,6 C 23,3 C 55 % 0 lf 1014,6 hPa 0,0 l/m 2 min 0 min 838 W/m 29,3 km/h (5 Bft) 95,35 %
23.04.2018 15:08 20,6 C 26,1 C 24,4 C 55 % 0 lf 1014,6 hPa 0,0 l/m 2 min 0 min 810 W/m 27,0 km/h (4 Bft) 92,00 %
23.04.2018 15:10 20,6 C 26,1 C 24,4 C 54 % 0 lf 1014,6 hPa 0,0 l/m 2 min 0 min 758 W/m 22,5 km/h (4 Bft) 95,74 %
23.04.2018 15:12 20,6 C 26,1 C 25,0 C 55 % 0 lf 1014,6 hPa 0,0 l/m 2 min 0 min 732 W/m 40,6 km/h (6 Bft) 95,74 %
23.04.2018 15:14 20,5 C 26,1 C 25,6 C 53 % 0 lf 1014,5 hPa 0,0 l/m 2 min 0 min 783 W/m 18,0 km/h (3 Bft) 95,45 %
23.04.2018 15:16 20,6 C 26,7 C 25,6 C 53 % 0 lf 1014,6 hPa 0,0 l/m 2 min 0 min 795 W/m 27,0 km/h (4 Bft) 94,00 %
23.04.2018 15:18 20,6 C 26,7 C 26,1 C 53 % 0 lf 1014,5 hPa 0,0 l/m 2 min 0 min 782 W/m 18,0 km/h (3 Bft) 97,92 %
23.04.2018 15:20 20,6 C 26,7 C 27,2 C 55 % 0 lf 1014,6 hPa 0,0 l/m 2 min 0 min 785 W/m 22,5 km/h (4 Bft) 97,87 %
23.04.2018 15:22 20,7 C 25,6 C 25,0 C 53 % 0 lf 1014,5 hPa 0,0 l/m 2 min 0 min 762 W/m 22,5 km/h (4 Bft) 95,65 %
23.04.2018 15:24 20,7 C 26,1 C 25,6 C 53 % 0 lf 1014,5 hPa 0,0 l/m 0 min 0 min 304 W/m 18,0 km/h (3 Bft) 93,62 %
23.04.2018 15:26 20,7 C 26,1 C 26,1 C 54 % 0 lf 1014,5 hPa 0,0 l/m 2 min 0 min 814 W/m 20,3 km/h (4 Bft) 93,62 %
23.04.2018 15:28 20,7 C 25,6 C 26,1 C 52 % 0 lf 1014,5 hPa 0,0 l/m 2 min 0 min 771 W/m 31,5 km/h (5 Bft) 95,35 %
23.04.2018 15:30 20,7 C 26,1 C 26,7 C 53 % 0 lf 1014,5 hPa 0,0 l/m 2 min 0 min 745 W/m 24,8 km/h (4 Bft) 95,92 %
23.04.2018 15:32 20,7 C 26,1 C 26,7 C 53 % 0 lf 1014,5 hPa 0,0 l/m 2 min 0 min 737 W/m 33,8 km/h (5 Bft) 95,74 %
23.04.2018 15:34 20,7 C 26,1 C 26,7 C 54 % 0 lf 1014,6 hPa 0,0 l/m 2 min 0 min 738 W/m 27,0 km/h (4 Bft) 95,83 %
23.04.2018 15:36 20,8 C 25,6 C 25,6 C 53 % 0 lf 1014,6 hPa 0,0 l/m 2 min 0 min 750 W/m 27,0 km/h (4 Bft) 93,62 %
23.04.2018 15:38 20,7 C 23,3 C 22,8 C 51 % 0 lf 1014,6 hPa 0,0 l/m 2 min 0 min 343 W/m 27,0 km/h (4 Bft) 95,74 %
23.04.2018 15:40 20,7 C 24,4 C 24,4 C 53 % 0 lf 1014,6 hPa 0,0 l/m 2 min 0 min 502 W/m 22,5 km/h (4 Bft) 95,35 %
23.04.2018 15:42 20,6 C 24,4 C 24,4 C 52 % 0 lf 1014,6 hPa 0,0 l/m 2 min 0 min 743 W/m 33,8 km/h (5 Bft) 89,80 %
23.04.2018 15:44 20,6 C 25,0 C 23,9 C 52 % 0 lf 1014,5 hPa 0,0 l/m 2 min 0 min 750 W/m 20,3 km/h (4 Bft) 97,96 %
23.04.2018 15:46 20,6 C 25,6 C 23,3 C 53 % 0 lf 1014,5 hPa 0,0 l/m 2 min 0 min 752 W/m 24,8 km/h (4 Bft) 95,65 %
23.04.2018 15:48 20,6 C 25,6 C 22,8 C 52 % 0 lf 1014,5 hPa 0,0 l/m 2 min 0 min 750 W/m 38,3 km/h (5 Bft) 97,67 %
23.04.2018 15:50 20,6 C 25,6 C 22,2 C 52 % 0 lf 1014,5 hPa 0,0 l/m 2 min 0 min 746 W/m 24,8 km/h (4 Bft) 96,00 %
23.04.2018 15:52 20,6 C 25,0 C 21,7 C 52 % 0 lf 1014,6 hPa 0,0 l/m 2 min 0 min 749 W/m 29,3 km/h (5 Bft) 97,87 %
23.04.2018 15:54 20,5 C 23,9 C 21,7 C 52 % 0 lf 1014,6 hPa 0,0 l/m 2 min 0 min 704 W/m 36,0 km/h (5 Bft) 95,65 %
23.04.2018 15:56 20,4 C 22,8 C 21,1 C 53 % 0 lf 1014,5 hPa 0,0 l/m 2 min 0 min 472 W/m 18,0 km/h (3 Bft) 97,96 %
23.04.2018 15:58 20,3 C 22,2 C 21,1 C 53 % 0 lf 1014,5 hPa 0,0 l/m 0 min 0 min 229 W/m 27,0 km/h (4 Bft) 95,65 %
23.04.2018 16:00 20,3 C 22,8 C 21,7 C 53 % 0 lf 1014,5 hPa 0,0 l/m 2 min 0 min 575 W/m 15,8 km/h (3 Bft) 95,35 %
23.04.2018 16:02 20,2 C 22,8 C 22,8 C 54 % 0 lf 1014,6 hPa 0,0 l/m 2 min 0 min 585 W/m 24,8 km/h (4 Bft) 94,00 %
23.04.2018 16:04 20,3 C 23,9 C 23,9 C 54 % 0 lf 1014,6 hPa 0,0 l/m 2 min 0 min 629 W/m 22,5 km/h (4 Bft) 95,83 %
23.04.2018 16:06 20,3 C 23,3 C 23,3 C 53 % 0 lf 1014,6 hPa 0,0 l/m 2 min 0 min 687 W/m 31,5 km/h (5 Bft) 100,00 %
23.04.2018 16:08 20,3 C 23,3 C 22,8 C 53 % 0 lf 1014,6 hPa 0,0 l/m 2 min 0 min 538 W/m 27,0 km/h (4 Bft) 97,87 %
23.04.2018 16:10 20,2 C 23,3 C 23,3 C 53 % 0 lf 1014,5 hPa 0,0 l/m 2 min 0 min 526 W/m 22,5 km/h (4 Bft) 100,00 %
23.04.2018 16:12 20,3 C 23,3 C 22,8 C 53 % 0 lf 1014,5 hPa 0,0 l/m 2 min 0 min 526 W/m 22,5 km/h (4 Bft) 98,00 %
23.04.2018 16:14 20,3 C 23,3 C 22,2 C 53 % 0 lf 1014,5 hPa 0,0 l/m 2 min 0 min 483 W/m 27,0 km/h (4 Bft) 100,00 %
23.04.2018 16:16 20,3 C 23,3 C 22,2 C 54 % 0 lf 1014,5 hPa 0,0 l/m 2 min 0 min 482 W/m 22,5 km/h (4 Bft) 97,92 %
23.04.2018 16:18 20,3 C 22,8 C 21,7 C 53 % 0 lf 1014,5 hPa 0,0 l/m 2 min 0 min 560 W/m 24,8 km/h (4 Bft) 97,56 %
23.04.2018 16:20 20,2 C 21,7 C 21,1 C 53 % 0 lf 1014,6 hPa 0,0 l/m 2 min 0 min 316 W/m 33,8 km/h (5 Bft) 100,00 %
23.04.2018 16:22 20,2 C 21,7 C 20,6 C 53 % 0 lf 1014,5 hPa 0,0 l/m 2 min 0 min 319 W/m 20,3 km/h (4 Bft) 100,00 %
23.04.2018 16:24 20,1 C 22,2 C 21,1 C 54 % 0 lf 1014,5 hPa 0,0 l/m 2 min 0 min 399 W/m 33,8 km/h (5 Bft) 95,74 %
23.04.2018 16:26 20,1 C 21,7 C 21,1 C 53 % 0 lf 1014,5 hPa 0,0 l/m 2 min 0 min 613 W/m 29,3 km/h (5 Bft) 97,96 %
23.04.2018 16:28 19,9 C 21,1 C 20,6 C 52 % 0 lf 1014,6 hPa 0,0 l/m 2 min 0 min 315 W/m 24,8 km/h (4 Bft) 97,87 %
23.04.2018 16:30 19,9 C 21,1 C 20,6 C 53 % 0 lf 1014,5 hPa 0,0 l/m 2 min 0 min 357 W/m 33,8 km/h (5 Bft) 100,00 %
23.04.2018 16:32 19,8 C 21,7 C 21,1 C 54 % 0 lf 1014,5 hPa 0,0 l/m 2 min 0 min 471 W/m 31,5 km/h (5 Bft) 96,00 %
23.04.2018 16:34 19,8 C 22,2 C 21,1 C 54 % 0 lf 1014,6 hPa 0,0 l/m 2 min 0 min 642 W/m 24,8 km/h (4 Bft) 100,00 %
23.04.2018 16:36 19,8 C 21,7 C 21,1 C 54 % 0 lf 1014,6 hPa 0,0 l/m 2 min 0 min 420 W/m 22,5 km/h (4 Bft) 100,00 %
23.04.2018 16:38 19,8 C 21,7 C 21,1 C 53 % 0 lf 1014,5 hPa 0,0 l/m 2 min 0 min 352 W/m 31,5 km/h (5 Bft) 100,00 %
23.04.2018 16:40 19,8 C 21,7 C 20,6 C 54 % 0 lf 1014,5 hPa 0,0 l/m 2 min 0 min 370 W/m 24,8 km/h (4 Bft) 100,00 %
23.04.2018 16:42 19,8 C 21,1 C 20,6 C 54 % 0 lf 1014,6 hPa 0,0 l/m 2 min 0 min 289 W/m 29,3 km/h (5 Bft) 96,00 %
23.04.2018 16:44 19,8 C 20,6 C 20,0 C 53 % 0 lf 1014,4 hPa 0,0 l/m 0 min 0 min 255 W/m 33,8 km/h (5 Bft) 97,83 %
23.04.2018 16:46 19,7 C 20,6 C 20,6 C 54 % 0 lf 1014,5 hPa 0,0 l/m 2 min 0 min 288 W/m 20,3 km/h (4 Bft) 94,44 %
23.04.2018 16:48 19,7 C 20,6 C 20,0 C 54 % 0 lf 1014,5 hPa 0,0 l/m 2 min 0 min 303 W/m 18,0 km/h (3 Bft) 94,64 %
23.04.2018 16:50 19,7 C 20,6 C 20,0 C 54 % 0 lf 1014,5 hPa 0,0 l/m 0 min 0 min 273 W/m 22,5 km/h (4 Bft) 93,88 %
23.04.2018 16:52 19,7 C 20,6 C 20,0 C 54 % 0 lf 1014,4 hPa 0,0 l/m 2 min 0 min 276 W/m 24,8 km/h (4 Bft) 93,62 %
23.04.2018 16:54 19,6 C 20,6 C 20,0 C 54 % 0 lf 1014,5 hPa 0,0 l/m 0 min 0 min 273 W/m 22,5 km/h (4 Bft) 97,87 %
23.04.2018 16:56 19,6 C 20,6 C 20,0 C 55 % 0 lf 1014,4 hPa 0,0 l/m 0 min 0 min 262 W/m 18,0 km/h (3 Bft) 95,74 %
23.04.2018 16:58 19,5 C 20,6 C 20,0 C 55 % 0 lf 1014,5 hPa 0,0 l/m 0 min 0 min 256 W/m 22,5 km/h (4 Bft) 91,43 %
23.04.2018 17:00 19,4 C 20,0 C 19,4 C 54 % 0 lf 1014,5 hPa 0,0 l/m 0 min 0 min 248 W/m 33,8 km/h (5 Bft) 96,43 %
23.04.2018 17:02 19,3 C 20,0 C 19,4 C 54 % 0 lf 1014,5 hPa 0,0 l/m 0 min 0 min 239 W/m 15,8 km/h (3 Bft) 93,88 %
23.04.2018 17:04 19,3 C 20,0 C 18,9 C 55 % 0 lf 1014,5 hPa 0,0 l/m 0 min 0 min 234 W/m 22,5 km/h (4 Bft) 95,92 %
23.04.2018 17:06 19,2 C 20,0 C 19,4 C 56 % 0 lf 1014,5 hPa 0,0 l/m 0 min 0 min 247 W/m 13,5 km/h (3 Bft) 97,14 %
23.04.2018 17:08 19,2 C 20,0 C 19,4 C 56 % 0 lf 1014,6 hPa 0,0 l/m 0 min 0 min 255 W/m 24,8 km/h (4 Bft) 92,59 %
23.04.2018 17:10 19,2 C 21,1 C 20,6 C 57 % 0 lf 1014,5 hPa 0,0 l/m 2 min 0 min 488 W/m 15,8 km/h (3 Bft) 94,00 %
23.04.2018 17:12 19,3 C 21,7 C 21,1 C 57 % 0 lf 1014,6 hPa 0,0 l/m 2 min 0 min 589 W/m 20,3 km/h (4 Bft) 95,83 %
23.04.2018 17:14 19,3 C 21,7 C 21,1 C 56 % 0 lf 1014,7 hPa 0,0 l/m 2 min 0 min 583 W/m 22,5 km/h (4 Bft) 94,29 %
23.04.2018 17:16 19,4 C 22,2 C 21,1 C 55 % 0 lf 1014,6 hPa 0,0 l/m 2 min 0 min 641 W/m 27,0 km/h (4 Bft) 94,44 %
23.04.2018 17:18 19,5 C 22,2 C 20,6 C 56 % 0 lf 1014,6 hPa 0,0 l/m 2 min 0 min 622 W/m 29,3 km/h (5 Bft) 94,00 %
23.04.2018 17:20 19,7 C 22,2 C 20,6 C 56 % 0 lf 1014,7 hPa 0,0 l/m 2 min 0 min 580 W/m 15,8 km/h (3 Bft) 95,92 %
23.04.2018 17:22 19,7 C 22,2 C 20,6 C 55 % 0 lf 1014,6 hPa 0,0 l/m 2 min 0 min 559 W/m 20,3 km/h (4 Bft) 93,48 %
23.04.2018 17:24 19,8 C 21,7 C 20,0 C 55 % 0 lf 1014,6 hPa 0,0 l/m 2 min 0 min 521 W/m 18,0 km/h (3 Bft) 95,74 %
23.04.2018 17:26 19,9 C 21,1 C 19,4 C 55 % 0 lf 1014,6 hPa 0,0 l/m 2 min 0 min 330 W/m 20,3 km/h (4 Bft) 91,43 %
23.04.2018 17:28 19,9 C 21,1 C 19,4 C 55 % 0 lf 1014,7 hPa 0,0 l/m 2 min 0 min 253 W/m 20,3 km/h (4 Bft) 98,11 %
23.04.2018 17:30 19,9 C 21,7 C 19,4 C 55 % 0 lf 1014,6 hPa 0,0 l/m 2 min 0 min 506 W/m 15,8 km/h (3 Bft) 97,87 %
23.04.2018 17:32 20,0 C 21,7 C 19,4 C 55 % 0 lf 1014,6 hPa 0,0 l/m 2 min 0 min 495 W/m 22,5 km/h (4 Bft) 97,56 %
23.04.2018 17:34 20,1 C 21,1 C 19,4 C 54 % 0 lf 1014,6 hPa 0,0 l/m 2 min 0 min 472 W/m 20,3 km/h (4 Bft) 97,87 %
23.04.2018 17:36 20,1 C 21,7 C 19,4 C 55 % 0 lf 1014,5 hPa 0,0 l/m 2 min 0 min 464 W/m 18,0 km/h (3 Bft) 98,21 %
23.04.2018 17:38 20,1 C 21,1 C 19,4 C 54 % 0 lf 1014,6 hPa 0,0 l/m 2 min 0 min 453 W/m 22,5 km/h (4 Bft) 97,96 %
23.04.2018 17:40 20,1 C 21,1 C 18,9 C 54 % 0 lf 1014,7 hPa 0,0 l/m 2 min 0 min 461 W/m 27,0 km/h (4 Bft) 88,89 %
23.04.2018 17:42 20,1 C 20,6 C 18,9 C 54 % 0 lf 1014,7 hPa 0,0 l/m 2 min 0 min 352 W/m 20,3 km/h (4 Bft) 97,87 %
23.04.2018 17:44 20,1 C 20,0 C 18,3 C 54 % 0 lf 1014,6 hPa 0,0 l/m 2 min 0 min 351 W/m 27,0 km/h (4 Bft) 98,18 %
23.04.2018 17:46 20,1 C 20,0 C 18,3 C 54 % 0 lf 1014,7 hPa 0,0 l/m 2 min 0 min 390 W/m 27,0 km/h (4 Bft) 96,00 %
23.04.2018 17:48 20,0 C 20,0 C 18,3 C 54 % 0 lf 1014,8 hPa 0,0 l/m 2 min 0 min 317 W/m 22,5 km/h (4 Bft) 100,00 %
23.04.2018 17:50 19,9 C 20,0 C 18,3 C 54 % 0 lf 1014,7 hPa 0,0 l/m 2 min 0 min 342 W/m 18,0 km/h (3 Bft) 100,00 %
23.04.2018 17:52 19,8 C 20,0 C 18,3 C 54 % 0 lf 1014,7 hPa 0,0 l/m 2 min 0 min 337 W/m 20,3 km/h (4 Bft) 97,87 %
23.04.2018 17:54 19,8 C 19,4 C 18,3 C 54 % 0 lf 1014,7 hPa 0,0 l/m 2 min 0 min 390 W/m 18,0 km/h (3 Bft) 97,87 %
23.04.2018 17:56 19,7 C 19,4 C 18,9 C 54 % 0 lf 1014,7 hPa 0,0 l/m 2 min 0 min 386 W/m 18,0 km/h (3 Bft) 100,00 %
23.04.2018 17:58 19,7 C 20,0 C 18,9 C 55 % 0 lf 1014,7 hPa 0,0 l/m 2 min 0 min 349 W/m 27,0 km/h (4 Bft) 92,00 %
23.04.2018 18:00 19,6 C 20,0 C 18,9 C 54 % 0 lf 1014,7 hPa 0,0 l/m 2 min 0 min 257 W/m 22,5 km/h (4 Bft) 100,00 %
23.04.2018 18:02 19,6 C 20,6 C 18,9 C 54 % 0 lf 1014,7 hPa 0,0 l/m 2 min 0 min 349 W/m 15,8 km/h (3 Bft) 93,62 %
23.04.2018 18:04 19,6 C 20,0 C 18,9 C 55 % 0 lf 1014,7 hPa 0,0 l/m 2 min 0 min 352 W/m 18,0 km/h (3 Bft) 94,44 %
23.04.2018 18:08 19,6 C 19,4 C 18,3 C 55 % 0 lf 1014,7 hPa 0,0 l/m 0 min 0 min 179 W/m 18,0 km/h (3 Bft) 95,79 %
23.04.2018 18:10 19,6 C 19,4 C 18,3 C 56 % 0 lf 1014,8 hPa 0,0 l/m 0 min 0 min 158 W/m 20,3 km/h (4 Bft) 96,00 %
23.04.2018 18:12 19,5 C 20,0 C 18,9 C 55 % 0 lf 1014,8 hPa 0,0 l/m 2 min 0 min 365 W/m 24,8 km/h (4 Bft) 91,43 %
23.04.2018 18:14 19,6 C 20,0 C 19,4 C 55 % 0 lf 1014,8 hPa 0,0 l/m 2 min 0 min 427 W/m 22,5 km/h (4 Bft) 95,74 %
23.04.2018 18:16 19,5 C 20,6 C 19,4 C 55 % 0 lf 1014,8 hPa 0,0 l/m 2 min 0 min 420 W/m 22,5 km/h (4 Bft) 90,91 %
23.04.2018 18:18 19,6 C 20,6 C 19,4 C 55 % 0 lf 1014,8 hPa 0,0 l/m 2 min 0 min 402 W/m 15,8 km/h (3 Bft) 94,00 %
23.04.2018 18:20 19,6 C 20,6 C 18,9 C 55 % 0 lf 1014,8 hPa 0,0 l/m 2 min 0 min 348 W/m 18,0 km/h (3 Bft) 93,62 %
23.04.2018 18:22 19,6 C 20,6 C 18,9 C 56 % 0 lf 1014,8 hPa 0,0 l/m 2 min 0 min 315 W/m 22,5 km/h (4 Bft) 95,74 %
23.04.2018 18:24 19,6 C 20,0 C 18,3 C 56 % 0 lf 1014,9 hPa 0,0 l/m 2 min 0 min 259 W/m 15,8 km/h (3 Bft) 95,65 %
23.04.2018 18:26 19,6 C 19,4 C 17,8 C 55 % 0 lf 1014,8 hPa 0,0 l/m 0 min 0 min 131 W/m 27,0 km/h (4 Bft) 94,59 %
23.04.2018 18:28 19,5 C 18,9 C 17,8 C 55 % 0 lf 1014,9 hPa 0,0 l/m 0 min 0 min 161 W/m 22,5 km/h (4 Bft) 93,62 %
23.04.2018 18:30 19,4 C 19,4 C 17,8 C 55 % 0 lf 1014,9 hPa 0,0 l/m 2 min 0 min 286 W/m 20,3 km/h (4 Bft) 96,30 %
23.04.2018 18:32 19,4 C 19,4 C 17,8 C 55 % 0 lf 1014,9 hPa 0,0 l/m 2 min 0 min 284 W/m 18,0 km/h (3 Bft) 88,00 %
23.04.2018 18:34 19,4 C 19,4 C 17,8 C 56 % 0 lf 1014,8 hPa 0,0 l/m 2 min 0 min 267 W/m 15,8 km/h (3 Bft) 97,22 %
23.04.2018 18:36 19,3 C 19,4 C 17,8 C 56 % 0 lf 1014,8 hPa 0,0 l/m 2 min 0 min 262 W/m 15,8 km/h (3 Bft) 93,62 %
23.04.2018 18:38 19,3 C 19,4 C 17,8 C 55 % 0 lf 1014,8 hPa 0,0 l/m 2 min 0 min 212 W/m 24,8 km/h (4 Bft) 97,87 %
23.04.2018 18:40 19,3 C 18,9 C 17,8 C 55 % 0 lf 1014,8 hPa 0,0 l/m 2 min 0 min 216 W/m 15,8 km/h (3 Bft) 95,74 %
23.04.2018 18:42 19,2 C 18,9 C 17,2 C 55 % 0 lf 1014,9 hPa 0,0 l/m 2 min 0 min 202 W/m 20,3 km/h (4 Bft) 93,48 %
23.04.2018 18:44 19,2 C 18,9 C 17,2 C 55 % 0 lf 1014,8 hPa 0,0 l/m 2 min 0 min 182 W/m 22,5 km/h (4 Bft) 95,74 %
23.04.2018 18:46 19,1 C 18,9 C 17,2 C 55 % 0 lf 1014,8 hPa 0,0 l/m 2 min 0 min 171 W/m 20,3 km/h (4 Bft) 97,92 %
23.04.2018 18:48 19,1 C 18,9 C 16,7 C 55 % 0 lf 1014,8 hPa 0,0 l/m 2 min 0 min 164 W/m 15,8 km/h (3 Bft) 97,92 %
23.04.2018 18:50 19,1 C 18,3 C 16,7 C 56 % 0 lf 1014,8 hPa 0,0 l/m 0 min 0 min 102 W/m 11,3 km/h (2 Bft) 97,87 %
23.04.2018 18:52 19,0 C 18,3 C 16,7 C 56 % 0 lf 1014,8 hPa 0,0 l/m 0 min 0 min 85 W/m 13,5 km/h (3 Bft) 97,87 %
23.04.2018 18:54 18,9 C 17,8 C 16,7 C 56 % 0 lf 1014,9 hPa 0,0 l/m 0 min 0 min 91 W/m 24,8 km/h (4 Bft) 97,83 %
23.04.2018 18:56 18,8 C 17,8 C 16,7 C 56 % 0 lf 1014,8 hPa 0,0 l/m 2 min 0 min 152 W/m 15,8 km/h (3 Bft) 100,00 %
23.04.2018 18:58 18,8 C 17,8 C 16,7 C 56 % 0 lf 1014,8 hPa 0,0 l/m 2 min 0 min 141 W/m 13,5 km/h (3 Bft) 100,00 %
23.04.2018 19:00 18,7 C 17,8 C 16,7 C 56 % 0 lf 1014,8 hPa 0,0 l/m 2 min 0 min 156 W/m 15,8 km/h (3 Bft) 95,74 %
23.04.2018 19:02 18,6 C 17,8 C 16,7 C 56 % 0 lf 1014,9 hPa 0,0 l/m 2 min 0 min 154 W/m 22,5 km/h (4 Bft) 97,92 %
23.04.2018 19:04 18,6 C 17,8 C 16,7 C 56 % 0 lf 1014,9 hPa 0,0 l/m 2 min 0 min 148 W/m 22,5 km/h (4 Bft) 95,65 %
23.04.2018 19:06 18,5 C 18,3 C 16,7 C 56 % 0 lf 1014,9 hPa 0,0 l/m 2 min 0 min 170 W/m 15,8 km/h (3 Bft) 95,74 %
23.04.2018 19:08 18,4 C 18,3 C 16,7 C 56 % 0 lf 1014,9 hPa 0,0 l/m 2 min 0 min 170 W/m 20,3 km/h (4 Bft) 93,62 %
23.04.2018 19:10 18,4 C 18,3 C 16,7 C 56 % 0 lf 1014,9 hPa 0,0 l/m 2 min 0 min 142 W/m 18,0 km/h (3 Bft) 97,87 %
23.04.2018 19:12 18,4 C 17,8 C 16,7 C 57 % 0 lf 1014,8 hPa 0,0 l/m 2 min 0 min 115 W/m 15,8 km/h (3 Bft) 95,74 %
23.04.2018 19:14 18,3 C 17,8 C 16,7 C 58 % 0 lf 1014,9 hPa 0,0 l/m 0 min 0 min 97 W/m 13,5 km/h (3 Bft) 97,87 %
23.04.2018 19:16 18,3 C 17,8 C 16,7 C 57 % 0 lf 1014,9 hPa 0,0 l/m 0 min 0 min 84 W/m 13,5 km/h (3 Bft) 97,87 %
23.04.2018 19:18 18,2 C 17,8 C 16,1 C 57 % 0 lf 1014,8 hPa 0,0 l/m 0 min 0 min 82 W/m 9,0 km/h (2 Bft) 97,87 %
23.04.2018 19:20 18,2 C 17,8 C 16,1 C 57 % 0 lf 1014,8 hPa 0,0 l/m 0 min 0 min 72 W/m 11,3 km/h (2 Bft) 95,74 %
23.04.2018 19:22 18,2 C 17,2 C 16,1 C 57 % 0 lf 1014,8 hPa 0,0 l/m 0 min 0 min 68 W/m 18,0 km/h (3 Bft) 97,87 %
23.04.2018 19:24 18,1 C 17,2 C 16,1 C 57 % 0 lf 1014,8 hPa 0,0 l/m 0 min 0 min 71 W/m 15,8 km/h (3 Bft) 95,74 %
23.04.2018 19:26 18,1 C 17,2 C 15,6 C 57 % 0 lf 1014,8 hPa 0,0 l/m 0 min 0 min 65 W/m 13,5 km/h (3 Bft) 97,87 %
23.04.2018 19:28 18,1 C 17,2 C 15,6 C 58 % 0 lf 1014,8 hPa 0,0 l/m 0 min 0 min 66 W/m 13,5 km/h (3 Bft) 97,83 %
23.04.2018 19:30 18,0 C 16,7 C 15,6 C 58 % 0 lf 1014,8 hPa 0,0 l/m 0 min 0 min 64 W/m 15,8 km/h (3 Bft) 97,87 %
23.04.2018 19:32 17,9 C 16,7 C 15,6 C 58 % 0 lf 1014,9 hPa 0,0 l/m 0 min 0 min 64 W/m 13,5 km/h (3 Bft) 97,92 %
23.04.2018 19:34 17,9 C 16,7 C 15,6 C 58 % 0 lf 1014,9 hPa 0,0 l/m 0 min 0 min 67 W/m 9,0 km/h (2 Bft) 97,87 %
23.04.2018 19:36 17,8 C 16,7 C 15,6 C 58 % 0 lf 1014,9 hPa 0,0 l/m 0 min 0 min 65 W/m 13,5 km/h (3 Bft) 97,83 %
23.04.2018 19:38 17,8 C 16,7 C 15,6 C 59 % 0 lf 1014,9 hPa 0,0 l/m 0 min 0 min 65 W/m 13,5 km/h (3 Bft) 97,87 %
23.04.2018 19:40 17,7 C 16,7 C 15,0 C 59 % 0 lf 1014,9 hPa 0,0 l/m 0 min 0 min 63 W/m 11,3 km/h (2 Bft) 100,00 %
23.04.2018 19:42 17,7 C 16,7 C 15,0 C 59 % 0 lf 1014,9 hPa 0,0 l/m 0 min 0 min 56 W/m 9,0 km/h (2 Bft) 100,00 %
23.04.2018 19:44 17,6 C 16,1 C 15,0 C 60 % 0 lf 1014,9 hPa 0,0 l/m 0 min 0 min 54 W/m 13,5 km/h (3 Bft) 95,74 %
23.04.2018 19:46 17,6 C 16,1 C 15,0 C 60 % 0 lf 1014,9 hPa 0,0 l/m 0 min 0 min 48 W/m 6,8 km/h (2 Bft) 97,92 %
23.04.2018 19:48 17,5 C 16,1 C 15,0 C 60 % 0 lf 1014,9 hPa 0,0 l/m 0 min 0 min 45 W/m 11,3 km/h (2 Bft) 100,00 %
23.04.2018 19:50 17,4 C 16,1 C 14,4 C 60 % 0 lf 1014,9 hPa 0,0 l/m 0 min 0 min 42 W/m 15,8 km/h (3 Bft) 100,00 %
23.04.2018 19:52 17,4 C 16,1 C 14,4 C 60 % 0 lf 1014,8 hPa 0,0 l/m 0 min 0 min 39 W/m 9,0 km/h (2 Bft) 97,83 %
23.04.2018 19:54 17,3 C 15,6 C 14,4 C 61 % 0 lf 1014,9 hPa 0,0 l/m 0 min 0 min 37 W/m 11,3 km/h (2 Bft) 100,00 %
23.04.2018 19:56 17,2 C 15,6 C 13,9 C 61 % 0 lf 1015,0 hPa 0,0 l/m 0 min 0 min 33 W/m 9,0 km/h (2 Bft) 93,62 %
23.04.2018 19:58 17,2 C 15,6 C 13,9 C 61 % 0 lf 1014,9 hPa 0,0 l/m 0 min 0 min 32 W/m 4,5 km/h (1 Bft) 100,00 %
23.04.2018 20:00 17,2 C 15,6 C 13,9 C 61 % 0 lf 1014,9 hPa 0,0 l/m 0 min 0 min 31 W/m 13,5 km/h (3 Bft) 95,74 %
23.04.2018 20:02 17,1 C 15,6 C 13,9 C 61 % 0 lf 1014,9 hPa 0,0 l/m 0 min 0 min 28 W/m 6,8 km/h (2 Bft) 97,67 %
23.04.2018 20:04 17,0 C 15,6 C 13,9 C 61 % 0 lf 1014,9 hPa 0,0 l/m 0 min 0 min 26 W/m 11,3 km/h (2 Bft) 97,87 %
23.04.2018 20:06 16,9 C 15,0 C 13,9 C 61 % 0 lf 1014,9 hPa 0,0 l/m 0 min 0 min 25 W/m 9,0 km/h (2 Bft) 97,87 %
23.04.2018 20:08 16,8 C 15,0 C 13,9 C 61 % 0 lf 1014,9 hPa 0,0 l/m 0 min 0 min 23 W/m 11,3 km/h (2 Bft) 95,74 %
23.04.2018 20:10 16,8 C 15,0 C 13,3 C 61 % 0 lf 1014,9 hPa 0,0 l/m 0 min 0 min 23 W/m 6,8 km/h (2 Bft) 97,87 %
23.04.2018 20:12 16,7 C 15,0 C 13,3 C 61 % 0 lf 1014,9 hPa 0,0 l/m 0 min 0 min 21 W/m 6,8 km/h (2 Bft) 97,83 %
23.04.2018 20:14 16,7 C 15,0 C 13,3 C 62 % 0 lf 1014,8 hPa 0,0 l/m 0 min 0 min 21 W/m 6,8 km/h (2 Bft) 97,87 %
23.04.2018 20:16 16,6 C 15,0 C 13,3 C 62 % 0 lf 1014,8 hPa 0,0 l/m 0 min 0 min 19 W/m 6,8 km/h (2 Bft) 97,87 %
23.04.2018 20:18 16,6 C 15,0 C 13,3 C 62 % 0 lf 1014,9 hPa 0,0 l/m 0 min 0 min 19 W/m 6,8 km/h (2 Bft) 97,87 %
23.04.2018 20:20 16,5 C 15,0 C 13,3 C 62 % 0 lf 1014,9 hPa 0,0 l/m 0 min 0 min 18 W/m 9,0 km/h (2 Bft) 97,87 %
23.04.2018 20:22 16,4 C 14,4 C 13,3 C 62 % 0 lf 1014,8 hPa 0,0 l/m 0 min 0 min 18 W/m 9,0 km/h (2 Bft) 97,87 %
23.04.2018 20:24 16,3 C 14,4 C 13,3 C 62 % 0 lf 1014,8 hPa 0,0 l/m 0 min 0 min 16 W/m 9,0 km/h (2 Bft) 97,83 %
23.04.2018 20:26 16,3 C 14,4 C 13,3 C 62 % 0 lf 1014,9 hPa 0,0 l/m 0 min 0 min 14 W/m 11,3 km/h (2 Bft) 95,74 %
23.04.2018 20:28 16,2 C 14,4 C 13,3 C 63 % 0 lf 1014,8 hPa 0,0 l/m 0 min 0 min 13 W/m 9,0 km/h (2 Bft) 97,87 %
23.04.2018 20:30 16,1 C 14,4 C 13,3 C 63 % 0 lf 1014,9 hPa 0,0 l/m 0 min 0 min 11 W/m 4,5 km/h (1 Bft) 95,74 %
23.04.2018 20:32 16,1 C 14,4 C 12,8 C 63 % 0 lf 1015,0 hPa 0,0 l/m 0 min 0 min 10 W/m 9,0 km/h (2 Bft) 92,68 %
23.04.2018 20:34 16,1 C 14,4 C 12,8 C 63 % 0 lf 1015,0 hPa 0,0 l/m 0 min 0 min 9 W/m 9,0 km/h (2 Bft) 97,87 %
23.04.2018 20:38 15,9 C 13,9 C 12,8 C 63 % 0 lf 1015,0 hPa 0,0 l/m 0 min 0 min 7 W/m 6,8 km/h (2 Bft) 94,68 %
23.04.2018 20:40 15,9 C 13,9 C 12,2 C 63 % 0 lf 1015,1 hPa 0,0 l/m 0 min 0 min 5 W/m 4,5 km/h (1 Bft) 89,13 %
23.04.2018 20:42 15,9 C 13,9 C 12,2 C 63 % 0 lf 1015,1 hPa 0,0 l/m 0 min 0 min 5 W/m 6,8 km/h (2 Bft) 95,74 %
23.04.2018 20:44 15,8 C 13,9 C 12,2 C 64 % 0 lf 1015,1 hPa 0,0 l/m 0 min 0 min 3 W/m 6,8 km/h (2 Bft) 93,62 %
23.04.2018 20:46 15,8 C 13,9 C 12,2 C 64 % 0 lf 1015,0 hPa 0,0 l/m 0 min 0 min 0 W/m 4,5 km/h (1 Bft) 95,74 %
23.04.2018 20:48 15,7 C 13,9 C 12,2 C 64 % 0 lf 1015,1 hPa 0,0 l/m 0 min 0 min 0 W/m 4,5 km/h (1 Bft) 95,74 %
23.04.2018 20:50 15,7 C 13,9 C 11,7 C 64 % 0 lf 1015,1 hPa 0,0 l/m 0 min 0 min 0 W/m 2,3 km/h (1 Bft) 93,62 %
23.04.2018 20:52 15,6 C 13,3 C 11,7 C 64 % 0 lf 1015,1 hPa 0,0 l/m 0 min 0 min 0 W/m 2,3 km/h (1 Bft) 95,65 %
23.04.2018 20:54 15,6 C 13,3 C 11,7 C 64 % 0 lf 1015,1 hPa 0,0 l/m 0 min 0 min 0 W/m 4,5 km/h (1 Bft) 97,87 %
23.04.2018 20:56 15,6 C 13,3 C 11,7 C 64 % 0 lf 1015,1 hPa 0,0 l/m 0 min 0 min 0 W/m 2,3 km/h (1 Bft) 93,62 %
23.04.2018 20:58 15,5 C 13,3 C 11,7 C 64 % 0 lf 1015,1 hPa 0,0 l/m 0 min 0 min 0 W/m 6,8 km/h (2 Bft) 100,00 %
23.04.2018 21:00 15,4 C 13,3 C 11,7 C 64 % 0 lf 1015,1 hPa 0,0 l/m 0 min 0 min 0 W/m 6,8 km/h (2 Bft) 100,00 %
23.04.2018 21:02 15,4 C 13,3 C 11,7 C 64 % 0 lf 1015,2 hPa 0,0 l/m 0 min 0 min 0 W/m 4,5 km/h (1 Bft) 97,87 %
23.04.2018 21:04 15,3 C 13,3 C 11,7 C 65 % 0 lf 1015,3 hPa 0,0 l/m 0 min 0 min 0 W/m 4,5 km/h (1 Bft) 95,65 %
23.04.2018 21:06 15,3 C 13,3 C 11,7 C 65 % 0 lf 1015,2 hPa 0,0 l/m 0 min 0 min 0 W/m 4,5 km/h (1 Bft) 95,74 %
23.04.2018 21:08 15,3 C 13,3 C 11,7 C 65 % 0 lf 1015,3 hPa 0,0 l/m 0 min 0 min 0 W/m 4,5 km/h (1 Bft) 93,62 %
23.04.2018 21:10 15,2 C 13,3 C 11,7 C 65 % 0 lf 1015,3 hPa 0,0 l/m 0 min 0 min 0 W/m 6,8 km/h (2 Bft) 91,49 %
23.04.2018 21:12 15,2 C 13,3 C 11,1 C 66 % 0 lf 1015,3 hPa 0,0 l/m 0 min 0 min 0 W/m 6,8 km/h (2 Bft) 93,62 %
23.04.2018 21:14 15,1 C 13,3 C 11,1 C 66 % 0 lf 1015,4 hPa 0,0 l/m 0 min 0 min 0 W/m 6,8 km/h (2 Bft) 91,49 %
23.04.2018 21:16 15,1 C 13,3 C 11,1 C 66 % 0 lf 1015,3 hPa 0,0 l/m 0 min 0 min 0 W/m 6,8 km/h (2 Bft) 93,62 %
23.04.2018 21:18 15,0 C 12,8 C 11,1 C 66 % 0 lf 1015,4 hPa 0,0 l/m 0 min 0 min 0 W/m 6,8 km/h (2 Bft) 95,74 %
23.04.2018 21:20 15,0 C 13,3 C 11,1 C 66 % 0 lf 1015,3 hPa 0,0 l/m 0 min 0 min 0 W/m 9,0 km/h (2 Bft) 93,62 %
23.04.2018 21:22 14,9 C 12,8 C 11,1 C 66 % 0 lf 1015,4 hPa 0,0 l/m 0 min 0 min 0 W/m 6,8 km/h (2 Bft) 93,62 %
23.04.2018 21:24 14,9 C 12,8 C 11,7 C 66 % 0 lf 1015,4 hPa 0,0 l/m 0 min 0 min 0 W/m 6,8 km/h (2 Bft) 95,74 %
23.04.2018 21:26 14,8 C 12,8 C 11,7 C 67 % 0 lf 1015,4 hPa 0,0 l/m 0 min 0 min 0 W/m 6,8 km/h (2 Bft) 91,30 %
23.04.2018 21:28 14,8 C 12,8 C 11,7 C 67 % 0 lf 1015,4 hPa 0,0 l/m 0 min 0 min 0 W/m 4,5 km/h (1 Bft) 95,74 %
23.04.2018 21:30 14,7 C 12,8 C 11,7 C 67 % 0 lf 1015,5 hPa 0,0 l/m 0 min 0 min 0 W/m 6,8 km/h (2 Bft) 93,62 %
23.04.2018 21:32 14,7 C 12,8 C 11,1 C 67 % 0 lf 1015,4 hPa 0,0 l/m 0 min 0 min 0 W/m 6,8 km/h (2 Bft) 95,74 %
23.04.2018 21:34 14,6 C 12,8 C 11,1 C 67 % 0 lf 1015,5 hPa 0,0 l/m 0 min 0 min 0 W/m 6,8 km/h (2 Bft) 95,74 %
23.04.2018 21:36 14,6 C 12,8 C 11,1 C 67 % 0 lf 1015,6 hPa 0,0 l/m 0 min 0 min 0 W/m 9,0 km/h (2 Bft) 95,74 %
23.04.2018 21:38 14,5 C 12,8 C 11,1 C 68 % 0 lf 1015,6 hPa 0,0 l/m 0 min 0 min 0 W/m 6,8 km/h (2 Bft) 93,48 %
23.04.2018 21:40 14,4 C 12,8 C 11,1 C 68 % 0 lf 1015,5 hPa 0,0 l/m 0 min 0 min 0 W/m 6,8 km/h (2 Bft) 93,62 %
23.04.2018 21:42 14,4 C 12,8 C 11,1 C 68 % 0 lf 1015,5 hPa 0,0 l/m 0 min 0 min 0 W/m 4,5 km/h (1 Bft) 97,87 %
23.04.2018 21:44 14,4 C 12,8 C 11,1 C 68 % 0 lf 1015,5 hPa 0,0 l/m 0 min 0 min 0 W/m 11,3 km/h (2 Bft) 95,74 %
23.04.2018 21:46 14,3 C 12,8 C 11,1 C 68 % 0 lf 1015,6 hPa 0,0 l/m 0 min 0 min 0 W/m 9,0 km/h (2 Bft) 95,74 %
23.04.2018 21:48 14,3 C 12,8 C 11,1 C 68 % 0 lf 1015,5 hPa 0,0 l/m 0 min 0 min 0 W/m 6,8 km/h (2 Bft) 93,62 %
23.04.2018 21:50 14,2 C 12,8 C 11,1 C 68 % 0 lf 1015,5 hPa 0,0 l/m 0 min 0 min 0 W/m 6,8 km/h (2 Bft) 97,83 %
23.04.2018 21:52 14,2 C 12,8 C 11,1 C 68 % 0 lf 1015,5 hPa 0,0 l/m 0 min 0 min 0 W/m 6,8 km/h (2 Bft) 95,74 %
23.04.2018 21:54 14,2 C 12,8 C 11,7 C 68 % 0 lf 1015,5 hPa 0,0 l/m 0 min 0 min 0 W/m 9,0 km/h (2 Bft) 95,74 %
23.04.2018 21:56 14,2 C 12,8 C 11,7 C 69 % 0 lf 1015,5 hPa 0,0 l/m 0 min 0 min 0 W/m 6,8 km/h (2 Bft) 97,87 %
23.04.2018 21:58 14,2 C 12,8 C 11,7 C 69 % 0 lf 1015,5 hPa 0,0 l/m 0 min 0 min 0 W/m 4,5 km/h (1 Bft) 97,87 %
23.04.2018 22:00 14,2 C 12,8 C 11,7 C 69 % 0 lf 1015,6 hPa 0,0 l/m 0 min 0 min 0 W/m 9,0 km/h (2 Bft) 97,87 %
23.04.2018 22:02 14,2 C 12,8 C 11,7 C 69 % 0 lf 1015,5 hPa 0,0 l/m 0 min 0 min 0 W/m 4,5 km/h (1 Bft) 97,83 %
23.04.2018 22:04 14,1 C 12,8 C 11,1 C 69 % 0 lf 1015,4 hPa 0,0 l/m 0 min 0 min 0 W/m 4,5 km/h (1 Bft) 95,74 %
23.04.2018 22:06 14,1 C 12,8 C 11,1 C 69 % 0 lf 1015,4 hPa 0,0 l/m 0 min 0 min 0 W/m 6,8 km/h (2 Bft) 95,74 %
23.04.2018 22:08 14,1 C 12,8 C 11,1 C 70 % 0 lf 1015,5 hPa 0,0 l/m 0 min 0 min 0 W/m 9,0 km/h (2 Bft) 97,87 %
23.04.2018 22:10 14,0 C 12,8 C 11,1 C 69 % 0 lf 1015,5 hPa 0,0 l/m 0 min 0 min 0 W/m 4,5 km/h (1 Bft) 97,87 %
23.04.2018 22:12 14,0 C 12,8 C 11,1 C 70 % 0 lf 1015,5 hPa 0,0 l/m 0 min 0 min 0 W/m 6,8 km/h (2 Bft) 100,00 %
23.04.2018 22:14 13,9 C 12,8 C 11,1 C 70 % 0 lf 1015,6 hPa 0,0 l/m 0 min 0 min 0 W/m 4,5 km/h (1 Bft) 100,00 %
23.04.2018 22:16 13,9 C 12,8 C 11,1 C 70 % 0 lf 1015,5 hPa 0,0 l/m 0 min 0 min 0 W/m 4,5 km/h (1 Bft) 100,00 %
23.04.2018 22:18 13,9 C 12,8 C 11,1 C 70 % 0 lf 1015,4 hPa 0,0 l/m 0 min 0 min 0 W/m 4,5 km/h (1 Bft) 100,00 %
23.04.2018 22:20 13,9 C 12,8 C 10,6 C 70 % 0 lf 1015,6 hPa 0,0 l/m 0 min 0 min 0 W/m 4,5 km/h (1 Bft) 97,87 %
23.04.2018 22:22 13,9 C 12,2 C 10,6 C 70 % 0 lf 1015,5 hPa 0,0 l/m 0 min 0 min 0 W/m 4,5 km/h (1 Bft) 100,00 %
23.04.2018 22:24 13,9 C 12,2 C 10,6 C 70 % 0 lf 1015,5 hPa 0,0 l/m 0 min 0 min 0 W/m 4,5 km/h (1 Bft) 100,00 %
23.04.2018 22:26 13,8 C 12,2 C 10,6 C 70 % 0 lf 1015,5 hPa 0,0 l/m 0 min 0 min 0 W/m 6,8 km/h (2 Bft) 95,65 %
23.04.2018 22:28 13,8 C 12,2 C 10,6 C 71 % 0 lf 1015,4 hPa 0,0 l/m 0 min 0 min 0 W/m 6,8 km/h (2 Bft) 95,74 %
23.04.2018 22:30 13,8 C 12,2 C 10,6 C 71 % 0 lf 1015,5 hPa 0,0 l/m 0 min 0 min 0 W/m 6,8 km/h (2 Bft) 100,00 %
23.04.2018 22:32 13,7 C 12,2 C 10,6 C 71 % 0 lf 1015,5 hPa 0,0 l/m 0 min 0 min 0 W/m 6,8 km/h (2 Bft) 97,87 %
23.04.2018 22:34 13,7 C 12,2 C 10,6 C 71 % 0 lf 1015,5 hPa 0,0 l/m 0 min 0 min 0 W/m 4,5 km/h (1 Bft) 95,74 %
23.04.2018 22:36 13,7 C 12,2 C 10,6 C 71 % 0 lf 1015,7 hPa 0,0 l/m 0 min 0 min 0 W/m 6,8 km/h (2 Bft) 100,00 %
23.04.2018 22:38 13,6 C 12,2 C 10,6 C 71 % 0 lf 1015,7 hPa 0,0 l/m 0 min 0 min 0 W/m 6,8 km/h (2 Bft) 100,00 %
23.04.2018 22:40 13,6 C 12,2 C 10,6 C 71 % 0 lf 1015,8 hPa 0,0 l/m 0 min 0 min 0 W/m 4,5 km/h (1 Bft) 100,00 %
23.04.2018 22:42 13,6 C 12,2 C 10,6 C 71 % 0 lf 1015,8 hPa 0,0 l/m 0 min 0 min 0 W/m 6,8 km/h (2 Bft) 97,87 %
23.04.2018 22:44 13,5 C 11,7 C 10,0 C 71 % 0 lf 1015,8 hPa 0,0 l/m 0 min 0 min 0 W/m 6,8 km/h (2 Bft) 100,00 %
23.04.2018 22:46 13,5 C 11,7 C 10,0 C 71 % 0 lf 1015,8 hPa 0,0 l/m 0 min 0 min 0 W/m 6,8 km/h (2 Bft) 100,00 %
23.04.2018 22:48 13,4 C 11,7 C 10,0 C 72 % 0 lf 1015,9 hPa 0,0 l/m 0 min 0 min 0 W/m 6,8 km/h (2 Bft) 100,00 %
23.04.2018 22:50 13,4 C 11,7 C 10,0 C 72 % 0 lf 1015,8 hPa 0,0 l/m 0 min 0 min 0 W/m 6,8 km/h (2 Bft) 97,87 %
23.04.2018 22:52 13,4 C 11,7 C 10,0 C 72 % 0 lf 1015,8 hPa 0,0 l/m 0 min 0 min 0 W/m 9,0 km/h (2 Bft) 97,87 %
23.04.2018 22:54 13,3 C 11,7 C 10,0 C 72 % 0 lf 1015,8 hPa 0,0 l/m 0 min 0 min 0 W/m 6,8 km/h (2 Bft) 97,87 %
23.04.2018 22:56 13,3 C 11,7 C 10,0 C 72 % 0 lf 1015,8 hPa 0,0 l/m 0 min 0 min 0 W/m 6,8 km/h (2 Bft) 100,00 %
23.04.2018 22:58 13,3 C 12,2 C 10,0 C 72 % 0 lf 1015,8 hPa 0,0 l/m 0 min 0 min 0 W/m 9,0 km/h (2 Bft) 97,87 %
23.04.2018 23:00 13,2 C 11,7 C 10,0 C 72 % 0 lf 1015,8 hPa 0,0 l/m 0 min 0 min 0 W/m 9,0 km/h (2 Bft) 97,83 %
23.04.2018 23:02 13,2 C 11,7 C 10,6 C 72 % 0 lf 1015,8 hPa 0,0 l/m 0 min 0 min 0 W/m 9,0 km/h (2 Bft) 97,92 %
23.04.2018 23:04 13,1 C 11,7 C 10,6 C 73 % 0 lf 1015,8 hPa 0,0 l/m 0 min 0 min 0 W/m 9,0 km/h (2 Bft) 93,62 %
23.04.2018 23:06 13,1 C 12,2 C 10,6 C 73 % 0 lf 1015,8 hPa 0,0 l/m 0 min 0 min 0 W/m 9,0 km/h (2 Bft) 97,87 %
23.04.2018 23:08 13,1 C 11,7 C 10,6 C 73 % 0 lf 1015,8 hPa 0,0 l/m 0 min 0 min 0 W/m 18,0 km/h (3 Bft) 93,62 %
23.04.2018 23:10 13,0 C 11,7 C 10,6 C 73 % 0 lf 1015,8 hPa 0,0 l/m 0 min 0 min 0 W/m 11,3 km/h (2 Bft) 91,49 %
23.04.2018 23:12 13,0 C 12,2 C 10,6 C 73 % 0 lf 1015,8 hPa 0,0 l/m 0 min 0 min 0 W/m 18,0 km/h (3 Bft) 93,48 %
23.04.2018 23:14 12,9 C 12,2 C 10,6 C 73 % 0 lf 1015,8 hPa 0,0 l/m 0 min 0 min 0 W/m 13,5 km/h (3 Bft) 91,49 %
23.04.2018 23:16 12,9 C 12,2 C 11,1 C 73 % 0 lf 1015,8 hPa 0,0 l/m 0 min 0 min 0 W/m 11,3 km/h (2 Bft) 92,00 %
23.04.2018 23:18 12,9 C 12,2 C 10,6 C 73 % 0 lf 1015,8 hPa 0,0 l/m 0 min 0 min 0 W/m 9,0 km/h (2 Bft) 91,30 %
23.04.2018 23:20 12,9 C 12,2 C 10,6 C 73 % 0 lf 1015,8 hPa 0,0 l/m 0 min 0 min 0 W/m 9,0 km/h (2 Bft) 93,62 %
23.04.2018 23:22 12,9 C 11,7 C 10,6 C 74 % 0 lf 1015,8 hPa 0,0 l/m 0 min 0 min 0 W/m 9,0 km/h (2 Bft) 93,62 %
23.04.2018 23:24 12,9 C 11,7 C 10,6 C 74 % 0 lf 1015,8 hPa 0,0 l/m 0 min 0 min 0 W/m 6,8 km/h (2 Bft) 91,49 %
23.04.2018 23:26 12,8 C 11,7 C 10,6 C 74 % 0 lf 1015,8 hPa 0,0 l/m 0 min 0 min 0 W/m 11,3 km/h (2 Bft) 93,62 %
23.04.2018 23:28 12,8 C 11,7 C 10,6 C 74 % 0 lf 1015,8 hPa 0,0 l/m 0 min 0 min 0 W/m 9,0 km/h (2 Bft) 93,62 %
23.04.2018 23:30 12,8 C 11,7 C 10,6 C 74 % 0 lf 1015,8 hPa 0,0 l/m 0 min 0 min 0 W/m 9,0 km/h (2 Bft) 91,30 %
23.04.2018 23:32 12,8 C 11,7 C 10,6 C 74 % 0 lf 1015,7 hPa 0,0 l/m 0 min 0 min 0 W/m 15,8 km/h (3 Bft) 91,49 %
23.04.2018 23:34 12,8 C 11,7 C 10,6 C 74 % 0 lf 1015,8 hPa 0,0 l/m 0 min 0 min 0 W/m 13,5 km/h (3 Bft) 93,62 %
23.04.2018 23:36 12,8 C 11,7 C 10,6 C 74 % 0 lf 1015,8 hPa 0,0 l/m 0 min 0 min 0 W/m 11,3 km/h (2 Bft) 93,62 %
23.04.2018 23:38 12,7 C 11,7 C 10,6 C 74 % 0 lf 1015,8 hPa 0,0 l/m 0 min 0 min 0 W/m 13,5 km/h (3 Bft) 89,36 %
23.04.2018 23:40 12,7 C 11,7 C 10,6 C 74 % 0 lf 1015,8 hPa 0,0 l/m 0 min 0 min 0 W/m 18,0 km/h (3 Bft) 91,49 %
23.04.2018 23:42 12,7 C 11,7 C 10,6 C 75 % 0 lf 1015,8 hPa 0,0 l/m 0 min 0 min 0 W/m 9,0 km/h (2 Bft) 95,65 %
23.04.2018 23:44 12,7 C 11,7 C 10,6 C 75 % 0 lf 1015,9 hPa 0,0 l/m 0 min 0 min 0 W/m 11,3 km/h (2 Bft) 95,74 %
23.04.2018 23:46 12,7 C 11,7 C 10,6 C 75 % 0 lf 1015,9 hPa 0,0 l/m 0 min 0 min 0 W/m 18,0 km/h (3 Bft) 95,74 %
23.04.2018 23:48 12,6 C 11,7 C 10,6 C 75 % 0 lf 1016,0 hPa 0,0 l/m 0 min 0 min 0 W/m 9,0 km/h (2 Bft) 93,62 %
23.04.2018 23:50 12,6 C 11,7 C 10,6 C 75 % 0 lf 1016,0 hPa 0,0 l/m 0 min 0 min 0 W/m 11,3 km/h (2 Bft) 93,62 %
23.04.2018 23:52 12,6 C 11,7 C 10,0 C 75 % 0 lf 1016,0 hPa 0,0 l/m 0 min 0 min 0 W/m 9,0 km/h (2 Bft) 95,74 %
23.04.2018 23:54 12,5 C 11,7 C 10,0 C 75 % 0 lf 1016,0 hPa 0,0 l/m 0 min 0 min 0 W/m 11,3 km/h (2 Bft) 93,48 %
23.04.2018 23:56 12,5 C 11,7 C 10,0 C 76 % 0 lf 1016,1 hPa 0,0 l/m 0 min 0 min 0 W/m 11,3 km/h (2 Bft) 100,00 %
23.04.2018 23:58 12,5 C 11,7 C 10,6 C 76 % 0 lf 1016,1 hPa 0,0 l/m 0 min 0 min 0 W/m 13,5 km/h (3 Bft) 95,74 %
_ Min-Zeit 23:54 22:44 22:44 15:38 00:00 00:00 - - - - 00:00 00:04
Minimum _ 12,5 C 11,7 C 10,0 C 51 % 0 lf 1009,9 hPa - - - - 0,0 km/h (0 Bft) 4,76 %
_ Max-Zeit 15:36 13:20 15:20 04:26 01:28 23:56 01:54 12:07 01:26 12:44 15:12 00:24
Maximum _ 20,8 C 28,9 C 27,2 C 93 % 15 lf 1016,1 hPa 0,6 l/m 3 min 2 min 976 W/m 40,6 km/h
S (6 Bft)
100,00 %
Durchschnitt _ 16,6 C 17,9 C 15,8 C 73 % 3 lf 1013,5 hPa #0,8 l/m #9:00 h #38 min. 406 W/m 15,6 km/h (3 Bft) 95,87 %
© 2018 W. Hausmann